[{"header": {"dx": 0.06612293990616946, "dy": 0.0552356325346848, "nx": 98, "ny": 59, "la1": 35.046912555036876, "la2": 31.78801023549047, "lo1": -121.43107172385933, "lo2": -114.95102361305473, "refTime": "2026041110", "parameterCategory": 1, "parameterNumber": 2}, "data": [-1.16, -1.16, -2.23, -3.43, -3.88, -3.72, -3.14, -3.14, -2.23, -1.88, -1.24, -1.26, -2.4, -2.23, -2.6, -1.9, -1.9, -1.26, -0.63, -0.95, -0.8, -0.71, -0.54, -0.57, -0.6, -0.8, -1.86, -2.8, -3.04, -2.68, -3.13, -3.13, -2.68, -2.54, -1.26, 0.0, 1.58, 2.0, 2.12, 1.7, 3.13, 2.68, 2.24, 2.68, 1.79, 3.07, 3.95, 3.95, 3.58, 3.13, 3.32, 2.8, 2.86, 2.8, 2.8, 2.8, 4.15, 5.16, 5.86, 6.28, 3.74, 0.89, -0.95, -0.71, 0.0, 2.21, 3.45, 5.64, 7.6, 8.05, 6.71, 5.34, 5.43, 6.0, 6.79, 7.42, 3.07, 0.0, -1.9, -1.88, -2.53, -2.84, -3.07, -2.79, -2.4, -1.47, -0.73, 0.0, 0.61, 2.73, 4.65, 5.59, 6.32, 7.02, 7.02, 6.7, 6.07, 4.66, -1.16, -0.61, -1.33, -2.51, -3.72, -3.88, -3.35, -3.14, -2.79, -1.88, -1.49, -1.58, -2.0, -2.23, -3.2, -2.53, -1.58, -1.58, -0.63, -1.26, -1.58, -1.49, -0.76, -0.0, -0.0, -0.0, -1.26, -1.86, -2.6, -2.68, -2.68, -2.68, -2.24, -2.54, -1.0, 0.0, 1.2, 2.21, 2.6, 2.97, 2.97, 3.13, 2.8, 1.86, 2.8, 3.32, 3.07, 3.07, 2.68, 2.68, 2.6, 2.8, 2.8, 3.07, 2.6, 2.17, 3.04, 4.66, 5.59, 5.86, 5.34, 3.2, 0.89, 0.0, 0.0, 1.49, 3.07, 4.46, 5.86, 8.01, 8.05, 5.77, 4.0, 5.43, 5.75, 5.59, 2.63, 0.0, -1.9, -1.88, -2.53, -2.84, -3.07, -2.79, -2.4, -1.47, -0.73, 0.0, 0.61, 2.73, 4.65, 5.59, 6.32, 7.02, 7.02, 6.7, 6.07, 4.66, -1.61, -1.16, -0.61, -1.84, -2.84, -3.72, -3.88, -3.72, -3.14, -2.53, -1.61, -1.24, -1.9, -1.9, -1.9, -1.9, -1.58, -1.26, -0.63, -1.6, -1.9, -1.74, -1.4, -0.0, -0.0, -0.0, -0.0, -0.0, -1.26, -1.7, -1.79, -1.79, -1.79, -2.0, -0.8, 0.0, 0.0, 1.74, 1.74, 2.6, 3.2, 3.22, 2.15, 2.5, 2.5, 2.4, 2.12, 2.24, 2.24, 2.24, 2.68, 2.68, 3.13, 2.68, 2.24, 1.79, 2.24, 3.51, 4.85, 5.16, 5.34, 5.34, 4.24, 1.6, 0.65, 1.49, 2.3, 3.07, 4.46, 5.86, 7.56, 7.15, 6.07, 4.46, 2.86, 4.4, 2.4, 0.0, -2.5, -2.53, -2.84, -3.49, -3.48, -3.79, -2.73, -2.98, -2.0, -0.65, 0.7, 3.79, 6.24, 6.53, 6.14, 6.88, 6.68, 5.09, 3.45, 3.82, -1.88, -1.16, -0.61, -1.16, -1.61, -2.84, -3.72, -3.88, -3.72, -2.79, -1.88, -1.9, -1.9, -1.9, -1.74, -2.21, -1.58, -1.26, -0.63, -0.99, -1.88, -1.74, -1.49, -1.2, -0.0, -0.0, 0.65, 0.54, -0.0, -0.0, -0.32, 0.45, 0.0, 0.89, 0.0, 1.34, 0.89, 1.58, 1.74, 1.74, 2.21, 3.16, 3.16, 2.21, 1.86, 1.34, 1.34, 1.79, 2.24, 2.24, 2.24, 2.24, 2.68, 2.24, 1.34, 0.89, 1.79, 2.68, 3.51, 4.15, 4.8, 5.43, 6.07, 3.74, 2.24, 1.24, 1.6, 2.07, 3.49, 4.73, 6.26, 7.56, 6.71, 3.32, 1.16, 1.4, 1.2, 0.0, -1.88, -3.48, -4.12, -3.48, -3.84, -4.12, -4.46, -3.84, -1.88, 0.0, 1.47, 5.13, 6.88, 6.53, 6.24, 5.3, 3.07, 2.6, 3.13, 3.58, -1.88, -1.2, -1.0, -0.61, -1.16, -1.61, -2.51, -3.43, -3.72, -3.14, -2.5, -1.9, -1.9, -2.21, -1.74, -1.74, -1.0, -0.8, -0.0, -1.24, -1.4, -1.4, -1.4, -1.4, -1.4, -0.65, -0.0, 0.65, 0.85, -0.0, -0.0, 0.0, 0.45, 2.68, 1.34, -1.79, 0.89, 1.34, 1.58, 1.2, 2.84, 4.11, 3.48, 2.23, 0.89, 0.63, 0.95, 1.6, 2.12, 1.79, 1.79, 2.12, 2.12, 1.79, 1.34, 0.89, 1.34, 2.24, 2.6, 3.04, 3.32, 4.4, 5.06, 4.71, 4.56, 2.21, 1.34, 1.26, 2.17, 3.13, 5.34, 7.67, 7.92, 2.8, 0.0, -0.57, 0.0, -1.2, -1.61, -3.16, -4.75, -4.46, -4.46, -5.09, -5.43, -4.74, -2.2, 0.0, 3.15, 5.28, 6.24, 5.59, 4.65, 1.86, 0.63, 1.7, 3.58, 4.92, -1.88, -1.2, -1.2, -0.53, -0.61, -1.16, -1.84, -2.51, -3.43, -3.14, -2.5, -1.9, -1.9, -2.21, -2.21, -1.49, -0.85, -0.0, -0.0, -0.99, -1.9, -1.88, -1.4, -1.4, -0.76, -0.76, -0.0, 0.98, 0.99, 0.8, 0.45, 0.0, 0.0, 1.9, 0.63, -1.34, -0.0, 0.63, 0.89, 0.6, 1.9, 2.8, 2.24, 1.6, 0.95, -0.0, 0.63, 1.2, 1.7, 2.12, 1.7, 1.79, 1.34, 0.8, 1.34, 1.7, 1.7, 1.79, 2.24, 2.6, 2.8, 2.41, 2.31, 3.76, 5.29, 6.33, 5.3, 3.22, 1.9, 3.16, 5.09, 6.68, 8.3, 6.39, 1.26, -1.34, -1.34, -1.9, -1.88, -2.53, -4.81, -5.43, -5.43, -5.77, -5.3, -4.6, -1.52, 0.74, 2.97, 3.7, 4.71, 5.21, 1.9, -1.26, -0.6, 2.17, 4.24, 5.64, -1.61, -1.2, -1.2, -1.2, -0.53, -0.53, -1.16, -1.84, -2.51, -2.84, -2.53, -1.9, -1.9, -2.4, -2.8, -1.9, -1.2, -0.0, -0.0, -0.6, -1.26, -1.86, -2.23, -1.9, -1.58, -0.71, -0.0, 1.4, 1.58, 1.9, 1.79, 0.0, 0.85, 1.9, 0.45, -1.26, -0.85, -0.0, -0.0, -0.63, 0.89, -0.0, -0.0, -0.0, 1.13, 1.49, 1.58, 0.95, 1.2, 2.84, 3.35, 1.86, 1.7, 1.79, 1.7, 1.86, 1.26, 0.6, 1.2, 1.7, 1.2, -0.0, -0.0, 2.25, 4.75, 7.13, 8.05, 6.31, 4.71, 4.65, 5.09, 5.43, 6.13, 7.98, 3.82, -0.0, -1.7, -1.49, -1.88, -1.84, -3.72, -5.21, -5.76, -5.64, -4.4, -3.31, -1.5, 0.0, 2.35, 3.06, 3.44, 1.41, -1.34, -2.4, 0.0, 2.5, 5.05, 5.34, -1.61, -1.2, -1.2, -0.65, -0.65, -0.53, -0.53, -1.16, -2.51, -2.84, -2.84, -2.21, -2.21, -1.9, -1.4, -1.9, -1.58, -0.0, -0.0, -0.0, -0.0, -0.71, -1.86, -2.24, -2.24, -1.79, -0.45, 0.45, 0.89, 2.8, 2.4, 1.79, 1.79, 1.34, -0.0, -1.26, -1.9, -0.0, -0.0, -0.0, -0.0, -0.0, -0.0, -0.0, 1.41, 2.73, 2.3, 2.53, 1.58, 2.23, 1.58, 1.9, 2.4, 3.04, 2.24, 1.26, 0.0, 0.0, 0.63, 0.42, -0.0, -0.79, -0.0, 1.49, 4.0, 6.2, 8.29, 8.37, 6.88, 6.44, 5.86, 4.87, 5.81, 7.11, 3.13, -0.45, -2.24, -2.17, -1.2, -0.7, -0.66, -4.07, -4.87, -4.73, -4.15, -2.76, -1.43, 0.0, 0.77, 2.23, 0.0, -2.4, -3.53, -2.12, 0.54, 2.84, 5.09, 5.05, -1.61, -1.2, -0.65, -0.65, -0.65, -0.65, -0.65, -1.16, -1.84, -2.84, -2.84, -3.14, -2.21, -1.74, -1.2, -1.9, -1.2, -0.0, -0.0, -0.0, -0.0, -0.0, -0.57, -1.79, -2.6, -1.86, -0.8, 0.0, 0.45, 2.8, 2.53, 1.9, 1.34, 1.79, 2.24, 0.89, -2.8, -1.4, -0.0, -0.0, -0.0, -0.0, -0.0, -0.0, 1.27, 1.83, 2.32, 3.22, 2.76, 2.68, 3.16, 1.86, 2.6, 3.13, 3.13, 1.79, 0.0, 0.0, -0.0, -0.66, -0.74, -0.72, -0.0, 0.76, 2.3, 4.65, 7.97, 9.57, 8.93, 8.0, 6.07, 4.92, 6.07, 3.32, -0.6, -2.8, -3.32, -2.5, -1.16, 0.0, 0.0, -1.98, -3.44, -3.39, -3.39, -3.53, -2.75, -1.45, -0.67, -1.13, -3.07, -3.53, -3.09, -1.2, 0.61, 3.48, 4.75, 4.46, -1.9, -1.2, -0.65, -0.65, -0.65, -0.0, -0.65, -1.16, -1.84, -2.51, -2.84, -3.14, -3.07, -2.15, -1.9, -1.2, -1.0, -0.6, -0.0, -0.0, -0.0, -0.0, 0.45, -0.89, -1.7, -1.58, -0.8, -0.6, 0.45, 2.24, 2.24, 3.13, 1.34, 0.0, 1.79, -0.0, -2.84, -2.6, -0.0, -0.0, -0.0, -0.0, -0.0, -0.0, -0.0, -0.0, 1.66, 3.35, 3.63, 3.35, 1.9, 2.12, 1.79, 2.23, 2.6, 1.26, 0.0, -0.45, -1.4, -1.52, -0.78, -0.0, -0.0, 0.8, 1.7, 3.13, 7.11, 9.62, 9.28, 8.01, 6.71, 5.81, 3.13, 0.0, -2.4, -3.49, -3.79, -3.22, -2.0, -0.59, 0.0, 1.88, 0.0, -0.67, -1.94, -2.51, -2.53, -2.5, -2.91, -3.13, -3.53, -3.58, -2.91, -1.84, 0.59, 2.73, 4.43, 3.48, -1.9, -1.2, -0.54, -0.54, -0.54, -0.0, -0.0, -0.53, -1.61, -2.23, -2.23, -2.79, -2.68, -2.4, -2.0, -1.26, -0.95, -0.6, -0.0, -0.0, 0.0, 0.0, 0.0, 0.0, 0.0, -0.95, -0.8, 0.0, 0.0, 1.6, 2.68, 1.79, 1.34, 0.89, -1.58, -2.4, -2.48, -1.4, -0.0, -0.0, -0.0, -0.0, -0.0, -0.0, -0.0, -0.0, 1.6, 2.53, 2.53, 2.3, 2.6, 2.4, 1.26, 0.63, 0.0, 0.0, -1.6, -1.79, -2.3, -1.63, -0.0, -0.0, -0.0, 2.0, 2.24, 3.74, 6.55, 8.01, 7.11, 4.93, 4.8, 3.07, -0.0, -2.68, -2.91, -2.53, -2.73, -2.88, -2.2, -1.52, -0.63, 0.61, 2.5, 1.9, 1.2, 0.45, -0.0, -0.95, -1.26, -1.86, -2.17, -2.24, -2.4, -1.2, 0.0, 2.07, 2.79, 2.84, -1.9, -1.49, -0.54, -0.54, -0.0, -0.0, -0.0, -0.0, -1.16, -1.84, -2.53, -2.21, -1.9, -1.86, -1.6, -0.63, -0.0, -0.0, -0.0, 0.95, 1.34, 1.6, 1.24, 2.4, 2.24, 1.58, 1.9, 1.58, 0.95, 1.6, 2.54, 2.24, 2.24, -0.0, -3.16, -2.68, -1.0, -0.0, -0.0, -0.0, -0.0, -0.0, -0.0, -1.08, -0.0, -0.0, 1.08, 1.27, 1.27, -0.0, 0.77, 0.82, 0.75, -0.0, -0.0, -1.26, -1.79, -3.13, -1.9, -1.52, -0.0, -0.0, -0.0, 1.34, 2.17, 2.91, 3.49, 4.43, 2.98, 0.57, 0.0, -0.89, -2.4, -3.07, -3.04, -1.9, -1.61, -1.84, -2.12, -2.66, -2.2, -1.33, 0.0, 3.07, 3.07, 2.5, 2.5, 1.86, 0.6, -0.0, 0.45, -0.63, -0.95, 0.0, 1.24, 1.88, 2.23, 1.88, -1.9, -1.24, -0.71, -0.54, -0.0, -0.0, -0.0, -0.0, -0.65, -1.88, -1.88, -1.9, -1.9, -1.24, -0.6, -0.0, -0.0, -0.0, -0.0, 0.63, 1.34, 1.79, 2.6, 2.63, 3.09, 3.53, 3.98, 3.54, 3.53, 3.39, 2.17, 2.24, 3.13, -0.0, -1.6, -0.6, 0.45, -0.0, -0.0, -0.76, -0.79, -0.79, -0.76, -0.79, -1.19, -0.0, -0.0, -0.0, -0.0, -0.0, -0.0, -0.75, -0.73, -0.0, -0.0, 1.11, 3.45, 2.26, -0.81, -1.58, -0.0, 0.78, -0.0, -0.0, -0.0, -0.0, -0.0, -0.0, 2.37, 3.83, -0.0, -2.68, -3.32, -2.91, -2.68, -1.86, -1.24, -0.65, -1.35, -2.11, -2.98, -1.9, -0.63, -0.0, 2.21, 3.79, 5.09, 3.07, 2.4, 1.34, 0.6, 0.0, 0.0, 1.26, 2.15, 2.5, 1.9, 1.24, -1.9, -1.24, -0.71, -0.71, -0.0, -0.0, -0.0, -0.0, -0.0, -1.2, -1.9, -1.9, -1.24, -0.57, -0.6, -0.0, 0.6, 0.6, 0.95, 0.95, 1.34, 1.79, 2.6, 3.07, 3.39, 3.87, 4.34, 4.44, 4.44, 4.44, 4.3, 4.38, 4.02, -0.0, -0.87, -0.0, -0.0, -0.0, -0.0, -0.79, -1.66, -1.66, -1.19, -1.14, -1.41, -1.14, -0.88, -0.0, -0.0, -0.0, -1.18, -2.21, -2.21, -1.14, -0.0, 0.71, 3.39, 5.73, 2.28, -0.77, -0.0, -0.0, -0.0, -1.14, -1.52, -1.6, -1.43, -1.43, 1.03, 6.17, 8.5, 1.41, -2.6, -2.68, -2.24, -1.26, -0.71, 0.0, 0.0, 0.0, 0.0, 0.45, 0.6, 0.57, 0.61, 3.64, 6.68, 6.39, 4.75, 3.45, 1.34, 0.0, 0.0, 1.24, 2.5, 1.9, 1.26, 0.6, -1.58, -1.24, -0.71, -0.71, -0.0, -0.0, -0.0, 0.71, -0.0, -0.54, -1.49, -1.9, -1.86, -0.8, -0.0, -0.0, 0.6, 0.6, 1.26, 1.6, 1.7, 2.24, 2.68, 3.07, 3.39, 3.87, 4.34, 4.77, 4.77, 4.77, 4.6, 4.8, 4.02, -0.0, -0.0, -0.0, -0.0, -0.0, -0.0, -0.7, -0.88, -1.3, -1.19, -1.19, -1.19, -1.3, -1.3, -1.14, -1.32, -1.23, -1.1, -1.1, -1.3, -1.41, -0.0, -0.0, -0.0, 2.97, 3.53, 1.16, -0.8, -1.11, -2.23, -2.33, -2.33, -2.33, -2.19, -0.0, 1.07, 3.17, 6.67, 9.87, 2.79, -1.6, -1.58, -1.24, -0.71, 0.0, 1.4, 2.86, 3.13, 3.74, 3.84, 2.07, 0.61, 1.84, 5.0, 6.95, 7.61, 8.06, 3.45, 0.0, -1.24, 0.0, 0.57, 0.0, 0.0, 0.0, -1.24, -1.24, -0.71, -0.71, -0.0, -0.0, -0.0, 0.71, 0.71, -0.0, -0.71, -1.58, -1.86, -0.8, -0.0, -0.0, 0.95, 0.6, 1.26, 1.49, 2.12, 2.24, 2.68, 3.07, 3.53, 3.87, 4.3, 4.77, 4.77, 4.8, 5.09, 5.31, 3.53, -0.0, -0.0, -0.0, -0.0, -0.0, -1.19, -1.3, -0.88, -0.79, -1.41, -1.41, -1.19, -2.4, -2.4, -2.32, -2.49, -3.45, -2.49, -1.05, -0.0, -0.0, -0.0, -0.0, -0.0, -0.0, 2.12, 2.12, -0.0, -3.4, -4.46, -3.4, -3.45, -3.45, -1.63, -0.0, 1.1, 2.09, 3.8, 9.17, 11.18, 2.24, -1.2, -0.6, 0.63, 1.86, 3.32, 3.97, 6.21, 6.4, 5.46, 3.07, 0.76, 0.65, 1.84, 4.12, 6.44, 7.67, 8.24, -0.6, -1.26, 0.0, 0.45, -0.0, -0.0, -0.0, -1.24, -1.24, -0.71, -0.0, -0.0, -0.0, -0.0, 0.57, 1.24, 0.57, -0.0, -1.24, -1.58, -1.26, -0.0, -0.0, 0.63, 0.95, 1.6, 1.7, 2.24, 2.24, 2.68, 3.13, 3.53, 3.98, 4.3, 4.34, 4.77, 4.8, 5.51, 5.31, 3.98, 1.08, -0.0, -0.76, -1.41, -0.98, -0.85, -1.19, -1.08, -0.0, -1.08, -1.49, -2.4, -2.6, -2.6, -2.6, -2.6, -2.4, -2.73, -1.27, -0.0, -0.0, -0.0, -0.0, -1.6, -0.0, 1.9, 2.48, -0.0, -2.6, -3.76, -3.49, -3.79, -2.68, -2.0, -1.19, -0.0, 4.66, 6.52, 9.6, 13.57, 10.02, 2.24, 0.71, 2.84, 6.79, 6.66, 5.81, 6.55, 7.28, 5.34, 2.15, 0.54, 0.57, 1.2, 3.39, 5.64, 8.36, 7.01, 1.79, 0.0, 0.45, 1.7, 1.86, 1.86, 1.86, -1.24, -1.24, -0.54, -0.0, -0.0, -0.0, -0.0, 0.57, 1.24, 1.24, 0.57, -0.0, -1.24, -1.26, -0.0, -0.0, 0.63, 0.95, 1.6, 1.79, 2.24, 1.79, 2.24, 2.68, 3.13, 3.53, 3.87, 4.3, 4.77, 4.77, 5.09, 5.09, 4.47, 2.86, 0.58, -0.78, -1.7, -2.4, -1.08, -1.27, -0.0, -1.27, -1.27, -1.08, -2.4, -2.4, -2.2, -2.4, -2.4, -1.19, -1.27, -0.0, -0.0, -0.0, -0.0, -0.0, -0.0, -0.0, 1.9, 1.4, -0.0, -1.14, -2.6, -3.49, -3.49, -2.53, -3.07, -2.23, -0.63, 4.24, 8.05, 11.18, 13.77, 12.14, 5.6, 2.73, 7.02, 11.44, 12.7, 10.32, 8.36, 6.21, 2.91, -0.0, -0.0, 0.89, 2.24, 3.51, 4.47, 5.36, 7.12, 4.3, 2.6, 1.7, 2.4, 2.8, 3.2, 3.2, -0.54, -0.54, -0.71, -0.0, -0.0, -0.0, 0.57, 0.57, 1.24, 1.24, 1.24, -0.0, -0.57, -0.8, -0.0, -0.0, 0.63, 1.2, 1.79, 1.79, 1.79, 1.34, 1.34, 2.68, 3.13, 3.58, 3.53, 2.6, 3.51, 4.77, 4.77, 4.44, 4.11, 2.84, 1.14, -0.53, -2.36, -2.84, -1.4, -1.41, -1.49, -2.0, -2.48, -2.4, -2.2, -2.48, -2.73, -2.2, -2.2, -1.41, -0.0, -0.0, -0.0, -0.0, -0.0, -0.0, -0.0, -0.0, 1.4, -0.0, -0.0, -1.3, -2.16, -2.3, -3.47, -4.01, -3.79, -2.12, 0.0, 2.21, 7.31, 10.7, 14.22, 13.96, 9.49, 4.4, 5.34, 10.75, 13.99, 14.42, 7.45, 1.34, -0.89, -0.89, 0.0, 0.63, 1.86, 3.53, 5.31, 3.82, 3.58, 4.87, 3.97, 3.07, 2.8, 3.07, 3.32, 3.32, -0.0, -0.0, -0.0, -0.0, -0.0, -0.0, 0.57, 0.57, 1.24, 1.86, 1.86, 1.24, -0.0, -0.0, -0.0, -0.0, 0.63, 1.34, 2.24, 2.24, 1.34, 0.89, 1.34, 2.24, 3.13, 3.58, 2.24, 4.43, 4.34, 4.34, 3.98, 3.97, 3.48, 2.82, 1.84, -0.0, -0.59, -1.7, -2.44, -1.76, -1.73, -2.84, -3.49, -3.49, -2.86, -2.73, -2.73, -2.73, -2.48, -1.27, -1.27, -0.0, -0.0, -0.0, -0.0, -0.0, 1.4, 0.6, -0.0, -0.0, -1.41, -2.4, -2.32, -3.22, -3.35, -3.84, -2.23, -1.2, 0.89, 4.15, 5.64, 9.72, 13.86, 16.07, 13.84, 9.39, 6.36, 7.71, 12.94, 13.96, 11.23, 2.68, -1.86, -1.86, -0.63, 0.63, 1.7, 3.13, 4.43, 3.07, 2.17, 3.13, 3.97, 3.07, 2.49, 3.32, 3.82, 3.82, -0.0, -0.0, -0.0, -0.0, -0.0, 0.57, 0.71, 1.24, 1.58, 1.86, 1.86, 1.86, 1.24, -0.0, -0.0, -0.0, 0.89, 1.34, 1.79, 2.24, 2.0, 1.6, 2.24, 2.68, 3.53, 3.98, 4.44, 4.88, 4.88, 4.44, 4.02, 3.14, 2.84, 2.36, 2.36, 1.16, -0.0, -0.59, -1.16, -1.7, -1.84, -2.8, -3.22, -3.47, -3.49, -3.22, -2.73, -2.73, -2.48, -2.84, -1.6, -1.4, -0.0, -0.0, -0.0, -0.0, 0.71, 0.57, -0.0, -1.4, -2.4, -3.22, -3.22, -3.79, -2.84, -3.6, -2.54, -0.95, 1.26, 4.38, 5.77, 10.25, 12.96, 14.4, 13.96, 11.45, 7.61, 8.32, 9.2, 11.15, 12.42, 8.8, 1.79, -0.63, 0.45, 0.45, 1.6, 2.15, 3.07, 3.09, 2.24, 2.68, 3.13, 2.68, 2.68, 3.13, 3.58, 3.58, 0.65, -0.0, -0.0, -0.0, 0.54, 0.71, 0.71, 1.24, 1.24, 1.86, 1.86, 1.86, 1.58, 1.24, 0.57, 0.6, 1.34, 1.34, 1.34, 1.79, 1.79, 2.24, 2.68, 3.58, 3.98, 4.43, 4.88, 4.89, 5.36, 4.47, 3.82, 2.86, 2.4, 2.18, 2.18, 1.7, 0.59, -0.0, -0.58, -1.14, -1.65, -2.29, -3.45, -3.85, -3.84, -3.2, -3.79, -2.73, -1.41, -1.6, -1.4, -1.4, -0.0, -0.0, -0.0, -0.0, -0.0, -0.0, -0.0, -2.84, -2.41, -2.98, -3.22, -2.41, -1.74, -2.21, -2.6, -1.2, -0.0, 2.48, 4.75, 9.36, 12.29, 7.45, 4.43, 4.71, 5.52, 5.7, 6.17, 7.33, 9.26, 10.19, 8.19, 3.53, 2.6, 1.86, 1.86, 1.86, 2.91, 4.24, 3.53, 3.13, 3.58, 3.07, 2.4, 2.4, 2.63, 2.63, 0.65, 0.65, 0.61, 0.53, 0.65, 0.65, 1.0, 1.24, 1.58, 1.86, 2.4, 2.4, 2.23, 1.58, 1.24, 1.58, 1.6, 1.79, 1.79, 1.79, 2.24, 2.68, 3.13, 3.58, 3.98, 4.44, 4.88, 5.33, 5.33, 4.92, 3.87, 2.86, 1.73, 1.94, 2.44, 1.73, 0.53, -0.0, -0.57, -1.12, -1.12, -1.8, -3.0, -4.1, -4.12, -3.49, -3.49, -2.4, -1.19, -1.27, -0.0, -0.0, -0.0, -0.0, -0.0, -1.27, -1.7, -0.0, -0.0, -0.65, -2.79, -3.22, -2.4, -1.8, -1.74, -0.99, -0.85, -0.6, -0.0, -0.54, -0.0, 5.64, 9.2, -1.13, -2.73, 1.4, 3.55, 3.7, 4.12, 4.66, 5.37, 7.45, 8.49, 7.92, 6.22, 3.97, 3.13, 2.68, 3.13, 3.82, 4.93, 5.2, 3.53, 2.63, 1.24, 1.24, 1.86, 1.86, 1.16, 1.16, 1.16, 1.16, 1.16, 1.2, 1.2, 1.9, 1.9, 2.4, 2.4, 2.4, 2.4, 1.9, 1.9, 2.23, 1.86, 2.12, 2.24, 2.24, 2.24, 2.68, 3.13, 3.58, 4.02, 4.43, 4.88, 4.89, 5.33, 4.92, 4.3, 3.16, 2.22, 2.23, 1.8, 1.73, 0.59, -0.0, -0.58, -1.14, -1.14, -1.67, -2.8, -3.85, -4.75, -4.12, -3.45, -2.6, -2.4, -1.19, -0.0, -0.0, -0.0, -0.0, -0.0, -2.2, -3.35, -1.6, -0.0, -0.0, -2.15, -2.53, -2.68, -0.87, -0.87, -0.76, -0.0, -0.0, -0.0, -1.24, -2.17, 14.1, 18.84, 6.28, -1.58, 0.0, 2.32, 2.21, 3.11, 2.06, 2.83, 4.02, 6.13, 7.01, 6.66, 4.87, 3.39, 2.6, 2.6, 3.14, 6.07, 6.25, 6.0, 2.68, 0.95, 0.6, 1.2, 1.2, 1.61, 1.61, 1.84, 1.84, 1.33, 1.33, 1.88, 1.88, 1.9, 2.15, 2.8, 2.8, 2.4, 2.4, 2.4, 2.4, 2.4, 2.6, 2.6, 2.68, 2.68, 3.13, 3.58, 4.02, 4.02, 4.43, 4.44, 4.77, 4.8, 4.89, 4.44, 3.43, 2.86, 2.23, 1.8, 1.08, -0.0, -0.53, -1.16, -1.16, -1.16, -1.16, -2.18, -3.47, -4.45, -4.45, -4.12, -2.84, -1.73, -1.23, -0.59, -0.0, -0.0, -0.0, -0.0, -1.3, -3.49, -2.53, -0.0, -0.0, -1.08, -2.6, -1.86, -1.98, -0.87, -0.76, -0.0, -0.0, -0.65, -2.24, 0.0, 8.05, 17.02, 16.69, 9.6, 2.0, 0.66, 1.27, 1.96, 0.73, 1.43, 2.69, 4.67, 5.38, 5.43, 3.14, 2.4, 1.7, 1.9, 1.76, 3.88, 6.95, 7.61, 6.07, 2.91, 2.4, 2.4, 2.4, 1.84, 1.84, 1.84, 1.8, 1.8, 1.6, 1.84, 1.88, 2.21, 2.5, 2.68, 2.68, 2.68, 2.5, 2.5, 2.4, 2.4, 2.6, 2.63, 2.63, 3.13, 3.13, 3.58, 4.02, 4.47, 4.44, 4.44, 4.34, 4.77, 4.89, 4.44, 3.88, 2.86, 2.48, 1.76, 1.08, -0.0, -0.59, -1.16, -1.7, -1.16, -1.07, -1.73, -2.84, -3.84, -4.45, -4.12, -2.82, -2.4, -1.08, -1.23, -1.23, -1.23, -1.18, -1.1, -1.14, -2.4, -2.6, -2.16, -0.0, -0.0, -1.4, -2.98, -1.9, -1.74, -0.76, -0.0, -0.0, -1.49, -1.34, 0.0, 5.36, 9.74, 15.13, 17.03, 11.18, 2.4, 0.0, 0.0, 0.0, 0.0, 2.01, 3.33, 4.02, 2.86, 2.5, 1.7, 1.61, 1.33, 1.26, 3.06, 7.09, 8.87, 8.58, 6.96, 5.46, 4.73, 4.73, 2.23, 2.23, 2.23, 2.23, 1.8, 1.8, 2.23, 2.51, 2.53, 2.53, 3.07, 3.07, 3.07, 3.07, 2.68, 2.68, 2.91, 2.91, 3.07, 3.07, 3.07, 3.58, 4.02, 4.47, 4.47, 4.47, 4.44, 4.34, 4.34, 4.47, 4.34, 3.72, 2.51, 1.27, 0.57, 1.23, 1.11, 0.55, -0.0, -1.23, -1.8, -1.67, -1.7, -2.4, -3.76, -4.12, -4.12, -3.47, -2.18, -1.88, -1.7, -1.67, -1.63, -1.71, -0.84, -0.78, -1.14, -2.16, -1.7, -0.0, -0.0, -0.0, -1.41, -1.8, -1.8, -0.99, -0.76, -0.71, -0.57, -0.0, 0.0, 1.6, 4.85, 8.32, 12.72, 17.24, 9.92, 0.0, -0.66, 0.0, 0.0, 0.76, 1.32, 1.19, 0.57, 0.95, 1.84, 2.8, 2.26, 2.12, 2.72, 5.98, 9.92, 9.92, 8.76, 7.92, 7.54, 7.54, 2.23, 2.23, 2.23, 2.48, 2.48, 2.48, 2.48, 2.23, 2.51, 3.14, 3.14, 3.14, 3.6, 3.6, 3.2, 3.07, 3.07, 3.32, 2.91, 3.07, 3.53, 3.53, 4.02, 4.47, 4.47, 4.47, 4.44, 4.44, 4.02, 3.98, 4.11, 3.35, 2.51, 1.27, 0.57, 0.57, 1.11, 1.08, -0.0, -0.0, -1.12, -1.65, -1.67, -1.7, -2.4, -3.49, -3.72, -3.45, -2.8, -2.32, -2.29, -2.26, -2.4, -2.23, -1.71, -1.55, -1.23, -1.23, -0.76, -0.81, -0.0, -0.0, -0.76, -0.88, -0.76, -0.0, -0.0, -0.63, 0.45, -0.0, 0.89, 0.6, 0.71, 1.34, 5.05, 13.35, 18.23, 6.36, -0.53, 0.0, 0.61, 1.1, 1.73, 0.66, 0.0, 1.2, 2.04, 3.15, 4.6, 3.69, 3.64, 5.37, 9.92, 10.99, 10.35, 9.14, 8.49, 8.49, 2.51, 2.51, 2.23, 2.48, 2.22, 2.22, 2.22, 2.48, 2.86, 3.16, 3.14, 3.35, 3.35, 3.35, 3.35, 3.6, 3.6, 3.2, 3.39, 3.39, 3.53, 3.98, 3.98, 4.47, 4.92, 4.92, 4.92, 4.47, 4.02, 3.7, 3.72, 3.72, 2.86, 2.22, 1.23, 1.11, 1.23, 1.07, 1.14, 0.57, -0.0, -1.2, -1.65, -2.47, -1.6, -2.18, -3.04, -3.42, -2.92, -2.26, -2.4, -2.4, -2.26, -2.26, -2.26, -1.76, -2.26, -1.18, -1.6, -0.65, -0.81, -0.76, -0.88, -0.0, -0.0, -0.0, -0.0, -0.6, -1.34, 0.45, 1.26, 2.68, 0.65, 0.0, 3.22, 10.52, 16.09, 16.53, 6.26, 0.71, 0.0, 1.94, 2.86, 3.14, 2.68, 2.84, 3.47, 4.22, 5.59, 5.3, 5.06, 5.37, 7.92, 10.73, 10.91, 10.26, 9.6, 9.6, 2.51, 2.51, 2.48, 2.22, 2.44, 2.86, 2.86, 2.86, 2.86, 2.86, 3.43, 3.43, 3.72, 3.88, 3.88, 3.72, 3.72, 3.6, 3.6, 3.82, 3.87, 3.98, 4.34, 4.77, 4.89, 4.92, 4.92, 4.47, 4.43, 4.11, 3.72, 3.78, 3.48, 3.12, 2.4, 1.73, 1.7, 1.67, 1.8, 1.12, 0.57, -0.0, -1.2, -2.29, -2.14, -1.72, -2.29, -2.96, -2.96, -2.29, -2.32, -2.32, -2.77, -2.49, -2.29, -2.29, -2.32, -1.8, -1.6, -1.55, -1.55, -0.81, -0.79, -0.0, -0.81, -1.41, -0.76, -0.0, -0.6, -1.34, 0.63, 4.8, 5.36, 2.35, 3.85, 7.82, 11.34, 14.28, 15.12, 8.91, 1.88, 2.51, 4.47, 6.47, 8.12, 6.96, 6.63, 6.7, 6.7, 6.35, 5.72, 6.44, 7.92, 10.23, 10.94, 11.06, 10.13, 10.13, 2.51, 2.51, 2.48, 2.86, 2.86, 2.86, 2.86, 2.86, 2.86, 3.15, 3.48, 3.78, 4.0, 4.0, 4.0, 4.27, 3.88, 3.88, 4.11, 4.11, 3.87, 4.3, 4.34, 4.77, 4.89, 4.89, 4.92, 4.88, 4.3, 3.72, 3.43, 3.79, 4.11, 3.49, 3.22, 2.82, 2.36, 1.67, 1.8, 1.65, 1.12, 0.57, -0.0, -1.76, -2.29, -2.51, -2.51, -2.77, -2.8, -2.36, -2.36, -2.32, -2.8, -2.8, -2.8, -2.32, -2.29, -2.32, -1.67, -1.6, -1.83, -0.98, -0.0, -0.0, -0.85, -1.88, -2.07, -0.0, 2.6, -0.0, 0.45, 2.54, 7.71, 8.01, 6.24, 6.2, 8.3, 10.01, 12.87, 14.75, 8.71, 2.91, 5.02, 8.0, 10.62, 11.41, 11.31, 9.34, 8.0, 6.7, 4.75, 4.73, 5.86, 8.25, 10.38, 10.38, 10.18, 10.18, 2.51, 2.51, 2.86, 2.86, 2.86, 2.86, 2.86, 2.86, 2.86, 3.48, 3.48, 3.48, 4.0, 4.0, 4.0, 4.0, 4.0, 4.27, 3.88, 4.27, 4.6, 4.6, 4.6, 4.77, 5.24, 5.33, 4.89, 4.88, 4.66, 3.72, 3.48, 3.49, 3.49, 3.49, 3.22, 2.8, 2.32, 2.36, 2.16, 1.67, 1.12, 0.57, -0.0, -0.57, -1.76, -2.29, -2.29, -2.29, -2.8, -2.36, -2.32, -2.49, -2.77, -2.96, -3.42, -3.0, -2.32, -2.32, -1.8, -1.84, -1.66, -0.99, -0.0, -0.0, -0.57, -1.9, -2.5, -1.24, 2.2, 3.72, 0.45, 0.0, 4.92, 11.88, 10.25, 6.68, 4.65, 5.75, 9.54, 13.34, 12.05, 4.92, 3.07, 8.22, 11.08, 12.89, 12.94, 12.3, 9.83, 6.25, 3.14, 1.9, 3.32, 6.36, 9.68, 9.89, 9.46, 9.46, 2.23, 2.23, 2.86, 2.86, 2.86, 3.12, 3.12, 3.12, 2.86, 3.2, 3.48, 3.48, 4.0, 4.0, 4.37, 4.37, 4.37, 4.55, 4.55, 4.4, 4.4, 4.6, 4.6, 4.6, 5.24, 5.24, 5.33, 4.89, 4.6, 4.6, 3.48, 3.78, 3.49, 3.22, 2.82, 3.04, 3.04, 2.36, 2.36, 1.67, 1.12, 1.12, 0.57, -0.0, -0.58, -1.12, -1.63, -2.12, -2.29, -2.29, -2.29, -2.44, -2.26, -2.4, -2.75, -2.75, -2.96, -2.29, -1.65, -1.67, -1.19, -0.85, -1.13, -0.76, -0.87, -1.49, -1.49, -1.26, -0.0, 3.72, 2.23, 0.8, 3.22, 9.83, 14.73, 9.26, 2.23, 2.6, 7.57, 11.6, 10.73, 6.67, 4.3, 6.36, 10.44, 12.3, 12.75, 12.3, 9.11, 3.6, 1.9, 1.26, 2.12, 3.53, 6.58, 9.11, 8.67, 8.67, 2.58, 2.58, 2.86, 2.86, 3.12, 2.84, 2.84, 3.12, 3.49, 3.49, 3.79, 4.07, 3.73, 4.37, 4.37, 4.55, 4.55, 4.55, 4.55, 4.8, 4.8, 5.02, 5.02, 5.09, 5.09, 5.24, 5.24, 5.24, 4.77, 4.4, 4.07, 4.11, 3.49, 2.82, 2.82, 2.82, 2.82, 2.82, 2.36, 1.8, 1.65, 1.2, 0.61, -0.0, -0.0, -0.57, -0.56, -1.18, -1.73, -1.73, -2.26, -2.75, -2.4, -2.4, -2.4, -2.75, -2.26, -2.26, -1.76, -1.2, -1.3, -2.23, -1.27, -1.41, -0.79, -0.79, -0.79, -0.87, -0.0, 2.48, 3.35, 4.24, 4.77, 8.63, 13.41, 12.87, 6.71, 4.02, 8.02, 11.15, 11.18, 8.05, 5.78, 5.2, 5.94, 9.23, 11.04, 10.58, 5.94, 3.07, 1.9, 1.26, 1.79, 3.58, 4.47, 7.94, 7.94, 7.94, 2.86, 2.86, 2.6, 2.86, 3.12, 2.84, 2.84, 3.49, 3.49, 3.49, 3.79, 4.07, 4.07, 4.37, 4.55, 4.55, 4.55, 4.55, 4.55, 4.55, 4.8, 4.8, 4.9, 4.9, 5.09, 5.09, 5.24, 5.24, 5.24, 4.8, 4.29, 4.11, 3.49, 3.49, 2.82, 2.82, 2.82, 2.82, 2.8, 2.14, 1.76, 1.1, 0.56, 0.57, -0.0, -0.0, -0.0, -0.59, -0.59, -1.18, -2.4, -2.92, -2.92, -2.4, -2.23, -2.4, -2.4, -2.26, -1.73, -1.18, -1.7, -2.2, -2.48, -2.73, -1.41, -1.41, -0.87, -0.98, -0.0, 0.88, 2.98, 5.75, 7.5, 8.91, 10.25, 11.08, 10.25, 9.26, 10.73, 12.04, 10.19, 7.57, 3.13, 2.4, 2.53, 6.0, 6.72, 3.45, 2.79, 2.53, 2.86, 2.8, 3.04, 4.02, 3.58, 4.92, 7.12, 7.12, 2.86, 2.86, 2.86, 2.86, 2.84, 2.84, 3.22, 3.49, 3.49, 3.49, 4.07, 4.07, 4.07, 4.55, 4.55, 4.55, 4.55, 4.55, 4.55, 4.55, 4.9, 4.9, 4.9, 4.9, 4.9, 5.09, 5.51, 5.7, 5.24, 4.9, 4.55, 4.37, 3.83, 3.49, 3.22, 2.82, 2.82, 3.04, 3.0, 2.29, 1.63, 1.18, 1.1, 0.57, 0.53, -0.0, -0.0, -0.0, -0.0, -0.55, -1.71, -2.92, -2.92, -2.4, -1.71, -1.84, -2.26, -2.26, -1.73, -1.71, -2.29, -2.44, -3.48, -1.6, -0.8, -1.13, -1.24, -1.6, -1.49, -0.0, 1.19, 4.43, 9.2, 10.16, 7.56, 5.81, 8.91, 12.56, 15.31, 14.29, 8.91, 2.12, 0.0, -0.0, 0.61, 1.16, 1.88, 2.15, 2.53, 3.14, 3.6, 3.82, 4.41, 4.92, 5.36, 5.81, 5.81, 5.81, 2.86, 2.86, 2.86, 2.86, 2.84, 2.84, 3.22, 3.49, 3.49, 3.79, 4.07, 4.07, 4.07, 4.55, 4.55, 4.55, 4.55, 4.55, 4.55, 4.55, 4.9, 4.9, 4.9, 5.31, 5.31, 5.31, 5.51, 5.57, 5.57, 5.51, 5.08, 4.65, 4.11, 3.83, 3.49, 3.47, 3.47, 3.45, 3.21, 2.96, 2.26, 1.73, 1.18, 0.78, 1.12, -0.0, -0.0, -0.0, -0.0, -0.55, -1.16, -2.23, -2.92, -2.4, -1.73, -1.73, -1.73, -1.73, -1.71, -1.71, -2.26, -2.36, -3.48, -1.0, -0.57, -1.13, -0.71, -1.8, -1.66, -0.79, -0.0, 2.6, 8.0, 11.8, 6.22, 2.68, 3.32, 11.18, 16.47, 15.96, 8.38, -0.0, -1.49, -0.65, -0.0, 1.84, 2.51, 3.14, 3.14, 4.0, 4.3, 4.43, 4.47, 6.26, 6.71, 6.67, 7.12, 6.26, 2.86, 2.86, 2.86, 3.12, 2.84, 3.22, 3.49, 3.78, 3.79, 3.79, 4.07, 4.07, 4.07, 4.55, 4.55, 4.55, 4.55, 4.55, 4.55, 4.55, 5.31, 5.31, 5.31, 5.31, 5.31, 5.31, 5.31, 5.57, 5.57, 5.51, 5.31, 4.84, 4.37, 3.83, 4.12, 3.84, 3.84, 3.85, 3.42, 2.75, 2.4, 1.71, 1.09, 1.55, 1.12, 0.56, -0.0, -0.0, -0.0, -0.0, -1.09, -2.23, -2.92, -2.26, -1.73, -1.73, -1.73, -1.73, -1.71, -1.71, -2.23, -2.32, -2.4, -0.99, -0.57, -1.41, -2.2, -1.66, -1.66, -1.49, -0.81, -0.0, 6.01, 12.47, 11.44, 3.07, 1.5, 7.97, 13.56, 13.41, 7.76, 1.26, -0.8, -0.53, -0.0, 2.73, 4.73, 4.93, 4.3, 5.2, 5.77, 5.81, 5.81, 7.56, 7.89, 7.92, 7.76, 7.12, 2.86, 2.86, 2.86, 3.12, 2.84, 3.22, 3.49, 3.78, 4.11, 3.79, 4.07, 4.07, 4.07, 4.55, 4.55, 4.55, 4.55, 4.55, 4.55, 4.55, 5.31, 5.31, 5.31, 5.31, 5.31, 5.31, 5.31, 5.51, 5.57, 5.51, 5.31, 5.08, 4.65, 4.37, 4.12, 4.12, 4.12, 3.85, 3.42, 2.92, 2.23, 2.23, 1.71, 1.09, 1.58, 1.18, -0.0, -0.0, -0.0, -0.0, -0.55, -1.18, -2.26, -2.29, -1.76, -1.76, -1.63, -1.73, -1.71, -1.71, -2.23, -2.29, -2.44, -2.2, -1.41, -1.19, -1.24, -1.49, -1.4, -1.6, -1.33, -0.0, 3.45, 9.3, 13.59, 7.6, 1.45, 2.28, 6.95, 7.81, 5.77, 2.4, -0.0, -0.71, 0.76, 4.12, 6.54, 6.79, 6.66, 7.15, 7.15, 7.56, 7.48, 8.63, 8.4, 7.89, 7.56, 7.76, 2.86, 2.86, 2.86, 3.12, 3.22, 3.22, 3.49, 4.11, 4.11, 4.11, 4.41, 4.07, 4.07, 4.55, 4.55, 4.55, 4.55, 4.55, 4.55, 4.55, 5.31, 5.31, 5.31, 5.31, 5.31, 5.31, 4.9, 5.31, 5.51, 5.51, 5.31, 5.08, 4.84, 4.65, 4.71, 4.43, 4.45, 4.1, 3.42, 2.92, 2.23, 2.23, 1.71, 1.16, 1.09, 1.58, 1.16, 0.58, -0.0, -0.0, -0.0, -1.18, -1.63, -1.76, -2.29, -1.76, -1.73, -1.73, -1.73, -1.71, -2.37, -2.4, -2.12, -2.2, -1.41, -1.27, -0.71, -2.48, -1.2, -2.07, -2.3, -0.61, 2.4, 5.69, 9.88, 14.67, 10.8, 2.53, 0.78, 1.9, 3.07, 4.93, 2.91, 1.26, 1.86, 3.82, 6.55, 8.01, 8.49, 8.46, 8.82, 8.24, 7.98, 8.82, 8.14, 7.03, 6.07, 6.07, 3.16, 3.16, 2.86, 3.12, 3.22, 3.22, 3.49, 4.11, 4.11, 4.11, 4.11, 4.07, 4.29, 4.55, 4.55, 4.55, 4.55, 4.55, 4.55, 4.55, 4.9, 5.31, 5.31, 5.31, 5.31, 4.9, 4.9, 4.9, 4.9, 5.31, 5.31, 5.31, 5.08, 5.01, 4.71, 4.74, 4.45, 4.1, 3.64, 2.92, 2.73, 2.23, 2.23, 1.71, 1.61, 1.18, 1.16, 0.58, -0.0, -0.0, -0.0, -0.59, -1.1, -1.76, -2.29, -2.29, -1.73, -1.73, -2.26, -2.23, -2.37, -2.23, -1.8, -1.3, -1.41, -1.27, -1.27, -2.48, -1.4, -2.15, -2.07, -1.4, -0.0, 4.01, 6.87, 11.35, 17.35, 15.9, 3.58, 0.57, 1.79, 6.11, 8.48, 7.01, 4.47, 4.02, 6.71, 8.46, 8.82, 9.15, 8.91, 8.91, 7.73, 7.2, 5.09, 4.46, 4.46, 4.46, 3.16, 3.16, 2.86, 3.12, 3.22, 3.22, 3.49, 4.11, 4.11, 4.11, 4.11, 4.65, 4.29, 4.55, 4.93, 4.93, 4.55, 4.55, 4.55, 4.8, 4.9, 5.31, 5.31, 5.31, 4.9, 4.9, 4.8, 4.8, 4.9, 5.51, 5.31, 5.31, 4.84, 4.94, 5.29, 5.01, 4.75, 4.08, 3.4, 2.92, 2.73, 2.23, 2.23, 1.71, 1.71, 1.71, 1.16, 0.58, 0.58, 0.58, -0.0, -0.0, -0.59, -1.18, -1.73, -2.26, -1.73, -1.73, -2.26, -2.4, -2.23, -1.81, -1.73, -1.1, -1.08, -1.13, -1.27, -2.4, -2.15, -2.79, -2.41, -1.2, -0.0, 3.48, 5.82, 8.3, 12.79, 18.29, 16.63, 8.82, 4.47, 5.81, 8.91, 8.84, 6.26, 4.52, 6.28, 7.47, 8.4, 8.25, 7.98, 7.06, 6.0, 4.46, 3.84, 2.79, 2.79, 2.79, 3.43, 3.43, 3.2, 3.49, 3.22, 3.49, 3.49, 4.11, 4.11, 4.11, 4.37, 4.65, 4.65, 4.93, 4.93, 4.93, 4.55, 4.55, 4.55, 4.8, 4.8, 4.9, 5.31, 5.31, 4.9, 4.8, 4.8, 4.8, 4.9, 5.51, 5.31, 5.08, 5.21, 4.94, 5.01, 4.74, 4.75, 4.08, 3.4, 3.4, 2.92, 2.23, 2.23, 1.71, 1.71, 1.71, 1.16, 0.58, 0.58, 0.58, 0.54, -0.0, -0.0, -0.58, -1.71, -2.23, -1.73, -1.73, -2.4, -2.73, -2.23, -1.71, -1.16, -1.12, -1.05, -0.0, -1.27, -1.49, -3.16, -3.16, -1.98, -2.15, -0.85, 1.98, 4.8, 6.7, 8.95, 12.47, 15.75, 16.11, 13.1, 8.48, 6.26, 5.81, 3.82, 4.46, 5.72, 6.07, 6.7, 5.69, 6.7, 3.45, 2.86, 2.84, 1.88, 2.15, 2.15, 2.15, 3.43, 3.43, 3.2, 3.49, 3.49, 3.49, 4.11, 4.11, 4.11, 4.11, 4.37, 4.65, 4.65, 4.93, 4.93, 4.93, 4.55, 4.55, 4.55, 4.8, 4.8, 4.9, 4.9, 4.9, 4.9, 4.8, 4.8, 4.8, 5.09, 5.09, 5.31, 5.08, 4.71, 4.71, 4.74, 4.74, 4.45, 3.84, 3.64, 3.4, 2.92, 2.4, 2.4, 2.23, 1.71, 1.71, 1.71, 1.16, 0.55, 0.55, 0.58, 0.54, -0.0, -0.54, -1.14, -1.71, -1.73, -1.84, -2.73, -2.89, -2.89, -2.23, -1.16, -1.18, -0.59, -1.41, -1.27, -0.71, -2.21, -3.84, -2.6, -2.21, -0.85, 0.85, 3.22, 4.84, 7.03, 9.9, 11.9, 13.46, 16.01, 15.13, 5.34, 0.57, 1.49, 2.48, 4.07, 4.74, 4.81, 4.43, 3.72, 1.9, 1.9, 1.2, 1.4, 1.33, 1.33, 1.33, 4.0, 4.0, 3.48, 3.49, 3.78, 4.11, 4.11, 4.11, 4.11, 4.11, 4.65, 4.65, 4.93, 5.08, 4.93, 4.93, 4.55, 4.55, 4.55, 4.8, 4.8, 4.8, 4.9, 4.9, 4.9, 4.8, 4.4, 5.02, 5.09, 5.09, 4.8, 4.65, 4.71, 4.71, 4.71, 4.74, 4.12, 4.1, 3.42, 3.2, 2.75, 2.75, 2.26, 2.26, 1.73, 1.61, 1.61, 1.09, 0.55, 0.55, 0.55, 0.58, -0.0, -0.0, -1.16, -1.09, -1.18, -1.71, -2.89, -2.89, -2.89, -2.23, -1.71, -1.09, -0.57, -1.19, -1.41, -1.27, -2.48, -1.86, -2.4, -1.86, -1.6, -0.0, 2.0, 3.63, 5.77, 8.03, 9.27, 9.85, 13.41, 18.31, 10.86, 0.0, -0.61, 1.33, 2.73, 3.38, 2.15, 0.0, 0.32, 0.6, 1.24, 1.2, 1.16, 1.33, 1.33, 1.33, 4.0, 4.0, 3.79, 3.79, 4.11, 4.11, 4.11, 4.11, 4.11, 4.37, 4.65, 4.65, 5.08, 5.08, 4.93, 4.55, 4.55, 4.55, 4.55, 4.8, 4.8, 4.8, 4.9, 4.9, 4.8, 5.02, 4.6, 4.6, 4.6, 4.8, 4.55, 4.65, 4.71, 4.71, 4.71, 4.43, 4.12, 4.1, 3.42, 3.42, 2.75, 2.75, 2.26, 2.26, 1.73, 1.73, 1.73, 1.18, 1.18, 0.59, 0.59, 0.55, 0.58, -0.0, -0.58, -0.55, -1.16, -1.81, -2.33, -2.86, -2.89, -2.23, -1.71, -1.16, -1.2, -1.23, -1.3, -0.0, -1.27, -0.57, -1.24, -1.9, -0.65, -0.0, 0.81, 3.47, 4.65, 6.64, 7.52, 8.76, 11.14, 16.06, 16.91, 5.0, -0.54, 0.0, 1.27, 0.59, 0.0, -0.45, 0.45, 0.0, 0.0, 0.54, 0.53, 0.0, 0.0, 0.0, 4.0, 4.0, 4.07, 4.11, 4.11, 4.11, 4.11, 4.11, 4.11, 4.65, 4.65, 4.93, 5.08, 5.08, 4.93, 4.55, 4.55, 4.55, 4.55, 4.8, 4.8, 4.8, 4.8, 4.9, 5.09, 5.02, 4.6, 4.6, 4.6, 4.4, 4.55, 4.65, 4.65, 5.01, 4.71, 4.43, 4.12, 3.85, 3.68, 3.42, 2.96, 2.75, 2.26, 2.26, 1.73, 1.73, 1.73, 1.18, 1.18, 1.1, 0.56, 0.59, 0.55, -0.0, -0.55, -0.55, -0.58, -1.69, -2.33, -2.86, -2.89, -2.23, -2.23, -1.71, -1.73, -1.72, -0.76, -0.0, -0.0, -0.0, -0.65, -1.2, -1.2, -0.0, -0.0, 2.47, 3.33, 4.03, 5.64, 7.73, 9.8, 12.09, 15.95, 14.22, 2.5, -1.33, -0.7, -1.2, -0.6, 0.45, -0.32, -0.63, 0.45, 0.0, 0.0, -0.71, -0.71, -0.71, 4.4, 4.8, 4.07, 4.11, 4.11, 4.11, 4.11, 4.11, 4.65, 4.65, 4.65, 5.08, 5.08, 5.08, 4.93, 4.55, 4.55, 4.55, 4.55, 4.8, 4.8, 4.8, 4.8, 5.09, 5.09, 5.09, 4.77, 4.6, 4.4, 4.55, 4.55, 4.65, 4.65, 4.65, 4.37, 4.43, 3.84, 4.12, 3.45, 3.42, 2.96, 2.96, 2.26, 2.26, 2.26, 1.73, 1.73, 1.73, 1.18, 1.18, 0.56, 0.56, 0.55, -0.0, -0.0, -0.55, -1.14, -1.78, -2.33, -2.33, -2.37, -2.23, -2.4, -2.26, -1.73, -1.63, -1.6, -0.73, -0.81, -0.0, -0.0, -0.0, -0.65, -0.65, -0.0, 0.73, 2.47, 3.33, 3.91, 6.42, 8.53, 9.48, 11.76, 16.73, 11.9, -2.23, -1.88, -1.2, -0.6, 0.0, -0.0, -0.63, -1.34, -1.2, -1.26, -1.49, -1.49, -1.49, 4.8, 4.8, 4.55, 4.07, 4.11, 4.11, 4.37, 4.65, 4.65, 4.65, 4.93, 5.08, 5.08, 5.08, 4.55, 4.55, 4.55, 4.55, 4.55, 4.8, 4.8, 4.8, 4.8, 5.09, 5.09, 5.09, 4.6, 4.6, 4.4, 4.55, 4.55, 4.93, 4.93, 4.65, 4.37, 4.71, 4.12, 4.12, 3.45, 3.45, 2.77, 2.96, 2.44, 2.26, 2.26, 1.73, 1.73, 1.73, 1.1, 1.1, 0.56, 0.56, 0.59, -0.0, -0.0, -0.58, -1.14, -1.14, -1.69, -2.37, -2.37, -2.23, -2.26, -2.26, -2.26, -2.29, -2.47, -1.55, -1.7, -0.81, -0.0, -0.0, -0.0, -0.0, -0.0, -0.0, 1.55, 2.29, 3.11, 4.56, 6.88, 8.53, 10.9, 15.99, 1.49, -2.68, -2.15, -1.86, -1.7, -0.63, -0.0, -0.0, -1.34, -2.17, -2.17, -2.17, -2.17, -2.17, 5.09, 5.09, 4.55, 4.07, 4.07, 4.65, 4.65, 4.65, 4.65, 4.93, 4.93, 5.08, 5.31, 5.31, 4.55, 4.55, 4.55, 4.55, 4.8, 4.8, 4.8, 4.8, 5.02, 5.09, 5.09, 5.02, 4.8, 4.8, 4.8, 4.55, 4.93, 5.08, 5.08, 4.65, 4.65, 4.71, 4.12, 3.84, 3.85, 3.45, 2.77, 2.77, 2.77, 2.44, 2.44, 2.26, 1.73, 1.63, 1.1, 1.1, 1.1, 0.56, 0.56, -0.0, -0.0, -0.58, -1.16, -1.16, -1.71, -1.71, -1.71, -1.71, -2.26, -2.44, -2.44, -2.29, -2.64, -3.22, -3.16, -2.41, -1.66, -0.0, 0.76, -0.0, -0.0, -0.0, 0.73, 2.2, 3.11, 3.11, 4.46, 7.59, 11.9, 13.23, 0.95, -3.07, -2.68, -2.17, -2.4, -1.0, -0.0, -0.0, -1.2, -2.12, -2.17, -2.6, -2.6, -2.6, 5.09, 5.09, 4.8, 4.55, 4.29, 4.29, 4.29, 4.55, 4.55, 4.55, 5.08, 5.31, 5.31, 4.9, 4.8, 4.55, 4.8, 4.8, 4.8, 4.9, 4.8, 4.8, 5.02, 4.8, 4.8, 4.8, 4.8, 4.8, 4.93, 5.08, 5.08, 5.08, 5.08, 4.84, 4.65, 4.71, 4.43, 3.84, 4.12, 3.45, 3.0, 2.77, 2.77, 2.29, 2.29, 2.29, 1.76, 1.63, 1.63, 1.1, 1.1, 0.61, 0.61, 0.56, -0.0, -0.55, -0.55, -0.55, -1.16, -1.71, -1.71, -1.61, -1.73, -2.29, -2.77, -3.0, -2.8, -3.08, -2.5, -2.86, -2.41, -0.87, -0.0, -0.0, -0.7, -0.66, -0.0, 1.45, 3.09, 3.2, 4.03, 6.88, 18.23, 14.07, 0.0, -3.53, -2.4, -1.0, -1.16, -0.0, 1.16, 1.49, 0.0, -0.6, -0.6, -1.26, -1.26, -1.26, 5.09, 5.09, 4.8, 4.55, 4.55, 4.55, 4.55, 4.55, 4.55, 4.55, 4.8, 5.31, 5.31, 4.9, 4.8, 4.8, 4.8, 4.8, 4.9, 4.9, 4.9, 5.02, 5.02, 4.8, 4.8, 4.8, 4.55, 5.08, 5.08, 5.08, 5.08, 5.47, 5.08, 4.84, 4.65, 4.71, 4.43, 4.12, 3.84, 3.72, 3.45, 3.0, 3.0, 2.77, 2.29, 2.29, 2.29, 1.76, 1.76, 1.76, 1.2, 1.12, 0.61, 0.56, -0.0, -0.0, -0.59, -0.59, -1.18, -1.18, -1.18, -1.18, -1.18, -2.29, -2.77, -3.0, -2.8, -2.82, -2.15, -3.22, -2.53, -1.74, -0.54, -0.76, -1.33, -2.07, -0.7, -0.0, 2.26, 3.09, 3.91, 5.76, 15.74, 18.72, 2.5, -3.32, -2.4, -0.0, 0.59, 0.61, 1.88, 1.9, 0.0, -0.6, 0.0, 0.0, 0.0, 0.0, 5.24, 5.24, 5.02, 4.8, 4.55, 4.55, 4.55, 4.55, 4.55, 4.8, 4.8, 4.9, 4.9, 4.9, 4.8, 4.8, 4.9, 4.9, 4.9, 4.9, 4.9, 4.9, 4.9, 4.8, 4.8, 4.8, 5.31, 5.08, 5.08, 5.31, 5.4, 5.81, 5.08, 5.47, 5.21, 4.71, 4.71, 4.12, 3.84, 3.47, 3.47, 2.8, 2.8, 2.8, 3.0, 2.29, 2.29, 2.29, 1.76, 1.76, 1.76, 1.12, 0.57, 0.57, -0.0, -0.0, -0.0, -0.56, -0.56, -1.1, -1.1, -1.1, -1.1, -1.76, -2.29, -2.8, -3.04, -2.36, -2.44, -2.84, -1.98, -0.76, -0.65, -0.61, -1.33, -2.07, -2.15, -0.7, 0.66, 2.29, 3.2, 6.95, 11.9, 20.08, 16.63, 2.24, -1.49, -0.0, 2.0, 2.23, 2.15, 2.15, 1.7, 0.0, -0.54, 0.0, 0.0, 0.0, 5.7, 5.7, 5.09, 4.4, 4.4, 4.8, 4.8, 4.8, 4.8, 4.8, 4.8, 4.9, 4.9, 4.9, 4.9, 5.31, 5.31, 5.31, 5.31, 5.31, 5.31, 5.31, 4.9, 4.9, 4.9, 4.9, 4.9, 5.31, 5.31, 5.4, 5.4, 5.4, 5.08, 5.47, 5.21, 4.71, 4.71, 4.43, 4.12, 3.84, 3.47, 3.47, 2.8, 2.8, 2.8, 3.0, 2.29, 2.29, 2.29, 1.76, 1.65, 1.12, 1.12, 0.57, -0.0, -0.0, -0.0, -0.0, -0.57, -0.57, -0.57, -0.57, -0.61, -1.2, -2.29, -2.8, -3.04, -2.82, -2.44, -2.41, -1.8, -0.87, -0.65, -1.33, -1.49, -2.07, -2.15, -1.4, -0.0, -0.0, 4.01, 6.44, 10.15, 16.44, 22.06, 14.17, 2.5, 1.33, 4.07, 5.36, 3.32, 3.07, 3.07, 1.49, 0.0, -0.61, -0.61, -0.61, 5.78, 5.78, 5.24, 4.6, 4.4, 4.4, 4.4, 4.4, 4.4, 4.4, 4.4, 4.8, 4.9, 4.9, 5.31, 5.31, 5.31, 5.4, 5.4, 5.4, 5.4, 5.31, 5.31, 5.31, 5.31, 5.31, 5.31, 5.31, 5.51, 5.57, 5.4, 5.4, 5.08, 5.47, 5.21, 5.21, 4.71, 4.71, 4.12, 4.12, 3.47, 3.47, 3.47, 3.04, 2.8, 2.8, 3.0, 2.49, 2.29, 2.14, 1.8, 1.8, 1.14, 1.14, 0.58, -0.0, -0.0, -0.0, -0.0, -0.0, -0.58, -0.57, -0.57, -1.12, -1.65, -2.8, -2.82, -2.84, -2.44, -2.53, -1.66, -1.8, -1.2, -1.6, -2.15, -1.4, -1.2, -1.58, -1.24, -0.0, 2.68, 5.82, 9.49, 14.49, 20.01, 17.38, 9.27, 4.71, 6.32, 8.82, 7.73, 4.43, 4.02, 2.4, 0.0, -1.33, -1.33, -1.33, 5.78, 5.78, 5.24, 4.6, 4.6, 4.6, 4.6, 4.6, 4.6, 4.6, 4.6, 5.02, 5.09, 5.31, 5.31, 5.4, 5.81, 5.81, 5.81, 5.81, 5.81, 5.81, 5.81, 5.4, 5.31, 5.31, 5.31, 5.51, 5.57, 5.4, 5.4, 5.4, 5.6, 5.6, 5.21, 5.21, 5.01, 4.71, 4.71, 4.12, 4.12, 3.47, 3.47, 3.47, 3.22, 2.8, 3.0, 3.0, 2.8, 2.32, 2.32, 1.67, 1.67, 1.16, 1.16, 0.59, -0.0, -0.0, -0.0, -0.0, -0.0, -0.0, -0.58, -0.58, -1.14, -2.36, -2.84, -2.84, -2.44, -2.48, -1.8, -1.8, -1.4, -1.49, -1.9, -1.9, -1.2, -1.24, -0.71, -0.0, 1.0, 5.21, 9.33, 13.78, 18.16, 16.44, 9.92, 6.64, 8.24, 10.79, 11.3, 7.98, 3.58, 1.9, 0.0, -1.33, -1.33, -1.33, 6.26, 6.26, 5.33, 4.77, 4.77, 4.6, 4.6, 4.6, 4.6, 4.6, 4.6, 4.6, 5.09, 5.51, 5.4, 5.81, 5.81, 5.88, 6.3, 6.3, 6.3, 5.81, 5.81, 5.81, 5.4, 5.4, 5.4, 5.57, 5.4, 5.81, 5.81, 5.81, 5.6, 5.6, 5.6, 5.21, 5.21, 4.71, 4.71, 4.71, 4.12, 4.12, 3.84, 3.47, 3.47, 3.45, 3.45, 3.0, 2.8, 2.8, 2.8, 2.36, 1.7, 1.7, 1.16, 1.07, 0.61, -0.0, -0.0, -0.0, -0.0, -0.0, -0.0, -0.58, -0.58, -1.7, -2.4, -2.44, -2.22, -1.76, -1.8, -1.49, -0.87, -2.23, -1.9, -1.9, -1.49, -0.54, -0.54, -0.0, 0.65, 5.43, 8.82, 12.37, 16.29, 15.99, 10.91, 7.59, 8.87, 11.42, 12.59, 10.09, 3.13, 0.53, 0.0, -0.61, -0.61, -0.61, 6.26, 6.26, 5.36, 4.89, 4.77, 4.77, 4.77, 4.77, 4.6, 4.6, 4.6, 4.6, 5.09, 5.51, 5.99, 5.99, 6.3, 6.3, 6.3, 6.3, 6.3, 6.3, 6.3, 5.81, 5.81, 5.81, 5.81, 5.81, 5.81, 5.81, 5.81, 5.81, 6.23, 5.6, 5.6, 5.6, 5.21, 5.21, 4.71, 4.71, 4.71, 4.43, 4.12, 3.84, 4.12, 4.12, 3.72, 3.45, 3.22, 3.04, 2.82, 2.36, 2.18, 1.88, 1.73, 1.19, 1.08, 0.55, -0.0, -0.0, -0.0, -0.0, -0.0, -0.0, -0.59, -1.16, -1.19, -1.76, -1.76, -1.58, -1.58, -1.58, -1.27, -1.41, -1.2, -1.61, -1.2, -0.65, -0.65, -0.0, 0.54, 3.84, 7.35, 10.43, 13.89, 15.09, 11.87, 9.56, 9.23, 10.9, 12.52, 11.9, 3.6, 0.0, 0.0, 0.0, 0.0, 0.0, 6.26, 6.26, 5.36, 4.89, 4.77, 4.77, 4.77, 4.77, 4.6, 4.6, 4.6, 4.6, 5.09, 5.51, 5.99, 5.99, 6.3, 6.3, 6.3, 6.3, 6.3, 6.3, 6.3, 5.81, 5.81, 5.81, 5.81, 5.81, 5.81, 5.81, 5.81, 5.81, 6.23, 5.6, 5.6, 5.6, 5.21, 5.21, 4.71, 4.71, 4.71, 4.43, 4.12, 3.84, 4.12, 4.12, 3.72, 3.45, 3.22, 3.04, 2.82, 2.36, 2.18, 1.88, 1.73, 1.19, 1.08, 0.55, -0.0, -0.0, -0.0, -0.0, -0.0, -0.0, -0.59, -1.16, -1.19, -1.76, -1.76, -1.58, -1.58, -1.58, -1.27, -1.41, -1.2, -1.61, -1.0, -0.65, -0.65, -0.0, 0.54, 2.41, 5.82, 8.55, 10.87, 12.16, 11.87, 10.12, 9.85, 10.52, 11.9, 13.14, 8.32, 0.89, -1.24, -0.65, -0.65, -0.65]}, {"header": {"dx": 0.06612293990616946, "dy": 0.0552356325346848, "nx": 98, "ny": 59, "la1": 35.046912555036876, "la2": 31.78801023549047, "lo1": -121.43107172385933, "lo2": -114.95102361305473, "refTime": "2026041110", "parameterCategory": 1, "parameterNumber": 3}, "data": [2.91, 2.91, 2.79, 2.86, 2.22, 2.48, 2.51, 2.51, 2.79, 2.5, 1.86, 1.26, 1.2, 1.49, 1.74, 1.9, 1.9, 1.26, 0.63, 0.95, 1.6, 2.12, 2.17, 1.7, 1.2, 1.6, 1.24, 1.4, 0.76, -0.0, -0.0, -0.0, -0.0, -0.85, -1.26, -1.79, -1.58, -1.0, -0.71, -0.57, 0.0, 0.0, 0.0, 0.0, 0.0, -0.61, -0.79, -0.79, 0.0, 0.0, 1.33, 1.4, 2.15, 1.4, 1.4, 1.4, 1.66, 1.47, 2.2, 2.35, 1.49, 0.0, -0.95, -2.12, -2.24, -2.21, -2.07, -1.41, 0.0, 0.0, 0.0, -2.29, -3.11, -3.0, -2.26, -1.65, -0.61, -0.89, -1.9, -2.5, -2.53, -2.84, -3.84, -3.49, -4.8, -5.16, -4.41, -3.13, -3.07, -4.09, -5.43, -6.39, -6.32, -6.24, -6.24, -5.21, -3.79, -2.66, 2.91, 3.07, 3.32, 3.14, 2.48, 2.22, 2.23, 2.51, 2.23, 2.5, 2.23, 1.58, 1.0, 1.49, 1.6, 2.53, 1.58, 1.58, 0.63, 1.26, 1.58, 2.23, 3.04, 2.68, 1.79, 1.34, 1.26, 1.24, 0.65, -0.0, -0.0, -0.0, -0.0, -0.85, -2.0, -1.79, -2.4, -2.21, -1.74, -0.99, -0.99, 0.0, -1.4, -1.24, -1.4, -1.33, -0.61, -0.61, 0.0, 0.0, 0.65, 1.4, 1.4, 0.61, 0.65, 0.54, 0.76, 1.55, 1.6, 2.2, 2.29, 1.6, 0.0, -1.79, -3.13, -3.74, -3.84, -2.98, -2.2, -0.8, 0.0, -0.72, -2.0, -3.11, -2.47, -1.6, -0.53, -0.89, -1.9, -2.5, -2.53, -2.84, -3.84, -3.49, -4.8, -5.16, -4.41, -3.13, -3.07, -4.09, -5.43, -6.39, -6.32, -6.24, -6.24, -5.21, -3.79, -2.66, 2.68, 2.91, 3.07, 3.07, 2.84, 2.48, 2.22, 2.48, 2.51, 2.53, 2.15, 1.86, 1.9, 1.9, 1.9, 1.9, 1.58, 1.26, 0.63, 0.8, 1.9, 2.6, 2.8, 3.13, 2.68, 1.79, 1.79, 1.79, 1.26, 0.57, -0.0, -0.0, -0.0, -1.0, -1.6, -1.79, -1.79, -2.6, -2.6, -1.74, -1.6, -2.41, -1.61, -1.88, -1.88, -1.2, -0.71, 0.0, 0.0, 0.0, 0.0, 0.0, 0.0, 0.0, 0.0, 0.0, 0.0, 0.7, 0.81, 1.47, 2.29, 2.29, 1.41, -0.8, -2.6, -3.74, -3.83, -3.84, -2.98, -2.2, -0.76, 0.0, -1.52, -2.98, -2.15, -2.2, -1.2, -0.89, -1.88, -2.53, -2.84, -2.79, -3.48, -3.79, -4.09, -4.46, -4.0, -2.6, -3.51, -6.07, -7.02, -7.35, -7.68, -7.64, -5.94, -3.64, -2.07, -1.27, 2.5, 2.91, 3.07, 2.91, 2.68, 2.84, 2.48, 2.22, 2.48, 2.23, 2.5, 1.9, 1.9, 1.9, 2.6, 2.21, 1.58, 1.26, 0.63, 1.49, 2.5, 2.6, 2.23, 2.4, 2.24, 2.68, 2.6, 2.17, 2.24, 1.34, 0.32, 0.0, 0.0, 0.0, -1.79, 0.0, 0.0, -1.58, -2.6, -2.6, -2.21, -3.16, -3.16, -2.21, -1.24, 0.0, 0.0, 0.0, 0.0, 0.0, 0.0, 0.0, 0.0, 0.0, 0.0, 0.0, 0.0, 0.0, 0.7, 1.66, 2.4, 3.11, 3.79, 1.49, 0.0, -1.86, -3.2, -3.45, -2.79, -1.35, 0.0, 0.76, 0.0, -1.33, -2.91, -2.8, -2.4, -1.79, -2.5, -3.48, -3.43, -3.48, -3.07, -3.43, -3.72, -3.07, -2.5, -3.13, -5.16, -7.32, -7.64, -7.35, -7.02, -6.06, -1.84, -0.65, 0.0, 0.0, 2.5, 2.4, 2.49, 3.07, 2.91, 2.68, 3.14, 2.86, 2.48, 2.51, 1.88, 1.9, 1.9, 2.21, 2.6, 2.6, 2.0, 1.6, 1.34, 1.86, 2.8, 2.8, 2.8, 2.8, 2.8, 2.6, 2.68, 2.6, 2.54, 1.79, 0.45, 0.0, 0.0, 0.0, 0.0, -0.0, 0.0, 0.0, -1.58, -2.4, -2.84, -4.11, -3.48, -1.49, 0.0, 0.63, 0.95, 0.8, 0.71, 0.0, 0.0, -0.71, -0.71, 0.0, 0.0, 0.0, 0.0, 0.0, 0.65, 0.76, 1.33, 2.2, 5.06, 7.07, 6.08, 2.21, 0.0, -1.26, -0.54, 0.0, 2.29, 4.6, 5.04, 1.4, -1.34, -1.7, -1.79, -2.4, -2.15, -3.16, -4.07, -3.72, -3.72, -3.64, -4.65, -4.74, -4.4, -5.36, -7.89, -8.3, -7.02, -6.39, -5.43, -1.24, 0.63, 0.57, 0.0, 0.0, 2.5, 2.4, 2.4, 2.63, 3.07, 2.91, 3.07, 3.14, 2.86, 2.51, 1.88, 1.9, 1.9, 2.21, 2.21, 2.23, 2.54, 1.79, 1.34, 1.49, 1.9, 2.5, 2.8, 2.8, 3.04, 3.04, 2.68, 3.9, 2.97, 1.6, 0.0, -0.89, -1.34, -1.9, -0.63, -0.0, 0.89, 0.63, 0.0, -1.2, -1.9, -1.4, 0.0, 0.8, 0.95, 0.89, 0.63, 0.6, 0.57, 0.71, 0.57, 0.0, 0.0, -0.4, 0.0, -0.57, -0.57, 0.0, 0.0, 0.65, 1.4, 3.22, 7.71, 10.52, 11.34, 10.28, 6.06, 2.41, 1.9, 3.16, 4.36, 5.94, 6.79, 5.59, 1.26, -0.0, -0.0, -1.9, -2.5, -2.53, -4.01, -4.65, -4.65, -4.95, -6.06, -7.67, -8.36, -8.91, -8.91, -8.14, -7.07, -6.7, -1.9, 1.26, 1.2, -0.54, -1.41, -1.41, 2.15, 2.4, 2.4, 2.4, 2.63, 2.63, 2.91, 3.07, 3.14, 2.84, 2.53, 1.9, 1.9, 1.2, 1.4, 1.9, 2.4, 0.89, 0.89, 1.2, 1.26, 1.24, 1.49, 1.9, 1.58, 2.12, 1.79, 2.8, 1.58, 1.9, 0.0, -1.79, -2.54, -1.9, 0.0, 1.26, 2.54, 2.68, 1.34, 0.63, 0.0, 1.79, 3.13, 4.02, 3.39, 2.23, 1.58, 0.95, 0.6, 2.84, 2.23, 1.24, 0.57, 0.0, -0.57, -1.24, -1.26, -1.2, -0.6, 0.57, 2.4, 6.26, 8.94, 10.49, 11.09, 11.88, 11.28, 8.68, 7.07, 5.43, 4.36, 3.11, 2.72, 2.9, 1.27, 1.34, 0.57, -0.99, -2.5, -3.07, -4.46, -6.7, -7.41, -8.06, -8.8, -9.26, -9.72, -9.39, -8.63, -8.4, -8.25, -4.24, -0.0, 1.2, -0.45, -1.88, -2.88, -2.29, 2.15, 2.4, 2.4, 2.6, 2.6, 2.63, 2.63, 2.91, 3.14, 2.84, 2.84, 2.21, 2.21, 1.9, 2.8, 1.9, 1.58, 0.89, 0.89, 1.34, 1.79, 2.12, 1.24, -0.0, -0.0, -0.0, -0.0, 0.0, 0.0, 1.4, 1.2, 0.0, 0.0, 0.0, 1.34, 1.26, 1.9, 3.13, 3.13, 0.89, 1.79, 2.24, 3.58, 4.47, 4.24, 4.09, 3.83, 2.53, 1.58, 3.35, 1.58, 1.9, 1.2, 0.76, 0.0, -1.26, -1.34, -1.34, -0.63, 1.27, 5.36, 7.11, 6.71, 7.45, 8.0, 9.3, 10.55, 9.9, 7.64, 4.83, 2.2, 0.7, 0.0, -0.79, 0.0, -0.0, -0.0, -0.54, -2.4, -3.51, -3.97, -7.46, -9.05, -10.13, -10.38, -10.37, -9.28, -8.49, -8.46, -8.19, -4.47, -1.2, 0.59, -0.71, -2.17, -2.84, -3.64, -2.88, 2.15, 2.4, 2.6, 2.6, 2.6, 2.6, 2.6, 2.91, 3.07, 2.84, 2.84, 2.51, 2.21, 2.6, 2.4, 1.9, 2.4, 1.34, 1.34, 1.34, 1.79, 2.24, 1.7, -0.0, -0.65, -1.24, -1.6, -1.34, 0.0, 1.4, 2.53, 1.9, 0.0, 0.0, 0.0, 0.0, 1.4, 2.8, 2.68, 2.24, 1.79, 1.79, 2.24, 1.79, 3.82, 4.57, 5.81, 5.37, 4.6, 3.58, 3.16, 1.24, 0.65, 0.0, 0.0, 0.0, -0.89, -0.89, 0.45, 3.97, 6.66, 5.77, 3.58, 3.04, 3.83, 5.43, 7.18, 7.36, 5.95, 4.0, 1.52, 0.0, -1.52, -1.33, -1.2, -1.4, -1.33, -1.88, -2.91, -3.13, -2.68, -5.94, -8.25, -10.18, -10.18, -9.18, -7.56, -6.55, -5.32, -3.39, -0.61, 0.59, -0.51, -2.4, -3.07, -3.48, -4.07, -2.98, 1.9, 2.4, 2.6, 2.6, 2.6, 2.68, 2.6, 2.91, 3.07, 3.14, 2.84, 2.51, 1.84, 1.61, 1.9, 2.4, 2.0, 1.2, 1.34, 2.24, 1.79, 0.89, 0.0, -0.0, -0.57, -1.58, -1.6, -1.2, 0.0, 0.0, 0.0, 0.0, 0.0, -1.79, 0.0, 2.68, 2.84, 1.74, 2.24, 2.24, 1.79, 1.79, 1.79, 1.79, 3.13, 4.02, 4.15, 4.19, 4.54, 4.19, 1.9, 0.71, 0.0, -1.49, -0.65, -1.26, -0.89, -0.0, 2.8, 6.07, 6.21, 3.58, 4.47, 1.6, 0.57, 0.0, 0.79, 2.06, 1.43, 0.8, 0.0, 0.0, 0.0, -0.45, -1.2, -2.79, -3.79, -4.84, -4.0, -3.53, -3.13, -2.5, -4.02, -5.32, -4.52, -3.14, -2.53, -1.88, -1.16, -0.0, 0.59, -0.0, -1.16, -3.07, -3.53, -4.09, -4.43, -3.48, 1.9, 2.4, 2.17, 2.17, 2.17, 2.24, 2.68, 2.63, 2.68, 2.79, 2.79, 2.23, 1.61, 1.2, 1.0, 1.26, 0.95, 1.2, 1.34, 0.89, 0.0, -0.89, -0.89, -0.45, -1.34, -0.95, -1.6, -1.34, -0.89, -0.8, 0.0, 0.0, 0.0, 0.0, 1.58, 4.8, 3.72, 2.8, 2.24, 2.24, 1.79, 1.79, 0.89, 3.13, 4.47, 3.58, 3.2, 2.53, 2.53, 3.83, 5.2, 4.8, 1.26, -0.63, -2.68, -4.02, -3.2, -0.0, 3.83, 6.51, 4.92, 4.47, 3.13, 1.0, 0.0, -1.49, -1.45, -0.73, -0.79, -2.11, -2.4, -0.61, 0.45, -0.0, -1.16, -2.53, -4.09, -5.05, -5.86, -6.07, -4.43, -3.07, -1.88, -1.9, -0.6, 0.0, 0.89, 0.95, 1.26, 1.24, 0.54, -0.0, -1.2, -2.4, -3.13, -3.45, -3.49, -2.84, 1.9, 2.23, 2.17, 2.17, 2.24, 2.24, 2.24, 2.68, 2.91, 3.07, 2.53, 2.21, 1.9, 1.24, 0.8, 0.63, 0.89, 0.89, 0.89, 0.95, 0.0, -0.8, -1.86, -1.2, 0.0, -1.58, -1.9, -1.58, -0.95, -0.8, -0.85, 0.0, 0.0, 1.79, 3.16, 3.58, 2.0, 1.34, 1.79, 2.68, 1.79, 1.79, 1.79, 4.34, 4.92, 4.47, 4.34, 3.82, 3.82, 5.81, 8.46, 9.8, 9.81, 8.05, 3.58, 1.26, -0.0, -0.0, 1.9, 6.07, 7.15, 4.92, 3.13, 0.0, 0.54, 1.16, 2.79, 4.43, 4.46, 1.7, -1.34, -0.0, 1.2, 0.61, -0.76, -1.9, -2.15, -3.07, -6.36, -6.64, -5.86, -3.32, -1.79, -0.61, 0.61, 1.88, 1.88, 1.24, 1.2, 0.45, 0.0, -0.63, -0.95, -1.34, -1.86, -2.5, -2.79, -2.5, 1.9, 1.86, 2.12, 2.17, 2.24, 2.24, 2.24, 2.24, 2.6, 2.5, 2.5, 1.9, 1.9, 1.86, 1.2, 0.89, 0.89, 0.89, 0.89, 0.63, 0.0, 0.0, -0.65, -0.53, -0.51, -0.59, -0.57, -0.51, -0.59, -1.13, -0.54, 0.0, 0.0, 2.68, 3.2, 1.2, 0.0, 0.89, 1.79, 3.04, 3.95, 3.95, 3.04, 3.95, 4.77, 5.36, 6.26, 6.26, 6.26, 7.15, 8.05, 9.81, 11.6, 12.07, 11.62, 11.12, 9.21, 6.79, 4.85, 7.89, 8.49, 6.21, 4.92, 2.68, 5.36, 8.94, 11.62, 14.3, 15.01, 13.78, 3.58, -0.0, 1.33, 1.16, -0.0, -1.24, -1.86, -2.6, -4.73, -4.93, -4.46, -1.9, -0.63, 0.89, 2.21, 3.79, 3.64, 1.84, 1.2, 0.0, -1.2, -1.34, -1.34, -1.26, -1.61, -1.88, -1.9, -1.86, 1.9, 1.86, 2.12, 2.12, 2.24, 2.24, 2.24, 2.24, 2.24, 2.4, 1.9, 1.9, 1.86, 1.7, 1.2, 1.34, 1.2, 1.2, 0.95, 0.95, 0.0, 0.0, -0.65, -0.61, -1.13, -1.11, -1.08, -0.55, -0.55, -0.55, -1.23, -0.88, 0.0, 2.68, 3.47, 2.68, 1.79, 1.79, 2.68, 3.95, 4.15, 4.15, 4.77, 5.7, 5.64, 5.7, 5.29, 5.81, 6.71, 6.71, 7.06, 7.74, 7.74, 7.97, 8.05, 8.46, 10.18, 12.62, 11.4, 8.46, 8.94, 8.94, 9.39, 10.22, 10.62, 11.96, 12.88, 12.88, 13.37, 13.89, 13.14, 4.24, 0.65, -0.0, -0.0, -1.26, -2.12, -2.24, -3.13, -2.68, -1.79, 0.0, 1.2, 1.7, 3.07, 5.09, 5.94, 5.59, 4.07, 2.07, 0.0, -1.79, -1.79, -1.86, -1.88, -1.9, -1.26, -1.2, 1.58, 1.86, 2.12, 2.12, 2.24, 2.24, 2.24, 2.12, 2.24, 2.17, 2.23, 1.9, 1.24, 1.6, 1.34, 1.34, 1.2, 1.2, 1.26, 0.8, 0.57, 0.0, 0.0, -0.61, -1.13, -1.11, -1.08, -1.19, -1.19, -1.19, -1.73, -2.4, 0.0, 3.58, 5.36, 4.92, 4.02, 2.24, 4.47, 3.51, 4.38, 5.2, 4.77, 4.77, 4.77, 5.2, 5.2, 5.7, 6.58, 6.14, 6.61, 6.61, 5.2, 4.24, 4.47, 4.92, 5.81, 8.91, 10.6, 9.32, 8.01, 8.87, 10.04, 10.47, 10.47, 10.47, 10.96, 9.39, 7.52, 7.4, 11.12, 12.14, 3.49, -0.8, -1.58, -1.86, -2.12, -2.24, -2.8, -2.15, 0.0, 1.49, 3.07, 3.45, 3.07, 3.07, 5.72, 6.95, 6.23, 5.64, 2.07, -0.89, -1.86, -1.79, -1.7, 0.0, 0.0, 0.0, 1.86, 1.86, 2.12, 2.12, 2.24, 2.24, 2.24, 2.12, 2.12, 1.79, 2.12, 1.58, 1.24, 1.6, 1.34, 0.89, 0.95, 1.2, 1.26, 0.99, 0.71, 0.0, 0.0, -0.61, -0.59, -1.11, -1.23, -1.19, -1.19, -1.07, -1.7, -2.36, -0.59, 3.58, 6.26, 4.47, 2.68, 2.24, 4.77, 5.2, 4.38, 3.95, 4.24, 4.24, 4.77, 4.8, 4.8, 5.81, 6.23, 5.75, 6.23, 5.26, 4.92, 4.02, 3.58, 4.02, 4.92, 5.36, 6.36, 6.36, 5.81, 6.8, 6.7, 6.8, 5.75, 5.75, 6.51, 7.15, 6.61, 7.31, 7.6, 9.17, 8.2, 0.0, -2.4, -1.2, -0.63, -1.24, -1.33, -0.66, 0.78, 3.2, 3.9, 3.84, 3.04, 2.6, 3.07, 3.43, 4.83, 4.6, 4.5, -1.2, -1.26, 0.0, 0.0, 0.45, 0.45, 0.45, 1.86, 1.86, 2.12, 2.24, 2.24, 1.79, 1.79, 1.7, 1.86, 1.7, 1.79, 1.86, 1.58, 1.26, 0.89, 0.89, 0.63, 0.95, 0.8, 0.57, 0.0, 0.0, 0.0, 0.0, -0.59, -0.57, -1.23, -1.08, -1.19, -1.07, -1.84, -2.36, -0.57, 4.34, 5.81, 5.31, 4.24, 3.9, 2.54, 4.77, 4.34, 3.58, 4.34, 3.74, 4.8, 5.2, 5.2, 5.2, 5.2, 4.8, 4.09, 3.82, 4.02, 3.58, 3.58, 4.02, 3.2, 2.24, 1.9, 3.72, 4.92, 5.2, 5.01, 4.65, 3.79, 3.58, 4.0, 4.77, 7.6, 8.15, 5.44, 3.69, 4.52, 2.31, 0.0, 2.12, 2.84, 2.26, 0.74, 0.0, 1.45, 2.18, 2.29, 2.86, 2.17, 1.7, 2.4, 1.13, 1.41, 1.52, 1.4, 0.0, 0.0, 0.0, 0.57, 1.24, 1.24, 1.24, 1.86, 1.86, 2.17, 2.24, 2.24, 1.79, 1.79, 1.7, 1.86, 1.86, 1.7, 1.79, 1.86, 1.26, 0.89, 0.89, 0.63, 0.95, 0.8, 0.0, 0.0, 0.0, 0.0, 0.0, 0.0, -0.59, -1.11, -1.23, -1.19, -1.19, -1.7, -1.7, 0.0, 4.0, 5.78, 6.21, 5.09, 4.8, 4.34, 3.82, 4.02, 3.82, 3.82, 4.34, 4.8, 4.8, 4.4, 4.8, 4.8, 4.77, 3.82, 3.13, 3.13, 3.13, 3.13, 3.13, 2.68, 2.24, 1.9, 2.8, 4.47, 5.7, 5.2, 4.65, 4.65, 4.22, 3.84, 1.49, 0.63, 1.41, 0.0, 0.0, 1.53, 3.04, 2.8, 4.09, 6.24, 6.1, 5.55, 2.95, 1.52, 0.78, 1.16, 1.34, 0.45, 0.0, 0.0, 0.7, 0.0, 0.0, 0.71, 1.23, 0.65, 0.57, 1.2, 1.4, 1.6, 1.6, 2.17, 2.17, 2.12, 2.24, 2.24, 1.79, 1.7, 1.7, 1.86, 1.86, 1.86, 1.79, 1.7, 1.6, 0.89, 0.89, 0.63, 0.6, 0.0, 0.0, 0.0, 0.0, 0.0, 0.0, 0.0, 0.0, -0.59, -0.65, -0.7, -1.19, -1.19, -0.55, 1.76, 4.55, 5.7, 5.34, 5.31, 4.55, 2.8, 4.24, 3.74, 4.0, 3.72, 4.8, 4.4, 3.72, 4.09, 4.4, 4.4, 4.24, 4.47, 4.02, 3.58, 3.13, 3.13, 2.68, 2.68, 3.13, 2.8, 3.58, 4.47, 5.2, 5.4, 3.83, 5.21, 4.81, 3.79, 0.71, -1.34, -2.21, -2.09, -0.76, 1.58, 3.1, 3.95, 2.2, 2.29, 3.07, 4.66, 4.81, 1.49, 0.0, -0.0, -0.0, 0.0, -0.63, -1.24, -0.59, -0.76, -1.27, 0.0, 0.7, 0.66, 0.61, 1.4, 1.84, 1.33, 1.33, 2.24, 2.24, 2.24, 2.24, 1.79, 1.79, 1.7, 1.7, 1.86, 1.24, 1.24, 1.86, 1.79, 1.79, 1.34, 0.89, 0.63, 0.0, 0.0, 0.0, 0.0, 0.0, 0.0, 0.0, 0.0, 0.0, 0.0, -0.63, -1.08, -1.08, -0.57, 0.66, 3.48, 5.08, 5.51, 5.36, 5.33, 5.09, 4.27, 4.11, 4.6, 4.55, 4.07, 4.07, 3.43, 4.09, 4.09, 4.09, 3.72, 3.82, 3.82, 4.02, 3.58, 3.13, 1.34, 1.34, 2.8, 1.2, 0.89, 3.13, 4.24, 4.8, 5.81, 5.37, 4.19, 3.07, 1.49, 0.6, 0.0, -1.66, -1.41, -1.5, 0.0, 0.8, 0.77, 0.0, -2.12, -2.31, 0.76, 3.1, 2.99, 0.0, -1.24, -1.24, -0.63, -0.63, -0.57, 0.0, -0.63, -0.61, -0.54, 0.0, 0.66, 0.61, 1.0, 1.33, 1.27, 1.27, 2.68, 2.68, 2.24, 2.24, 2.24, 1.7, 2.12, 1.86, 1.58, 1.24, 1.24, 1.24, 1.86, 1.79, 1.34, 0.89, 0.0, 0.0, 0.0, 0.0, 1.0, 0.8, 0.0, 0.0, -0.59, -0.57, -0.55, -0.61, -0.61, -0.55, 0.0, 2.51, 4.55, 5.31, 5.31, 5.24, 5.36, 5.33, 5.24, 5.09, 5.51, 5.6, 5.37, 5.21, 4.07, 4.29, 4.09, 4.09, 3.72, 2.84, 3.2, 2.8, 3.13, 3.13, 2.68, 1.34, 2.12, 1.7, 1.79, 2.8, 4.8, 5.37, 5.37, 3.79, 2.84, 1.8, 0.85, 0.95, 1.26, 0.88, 0.72, 0.79, 0.0, -3.2, -3.1, -3.82, -6.92, -6.05, -4.6, -0.74, 1.55, 1.6, 0.0, -0.63, 0.0, 0.0, 0.8, 1.61, 1.84, 0.51, 0.0, 0.0, 0.0, 0.0, 0.0, 0.0, 0.0, 0.0, 2.6, 2.68, 2.68, 2.24, 2.17, 2.12, 2.12, 1.86, 1.86, 1.24, 1.24, 1.24, 1.58, 1.86, 1.7, 1.2, 0.0, 0.0, 0.0, 0.0, 0.0, 0.0, 0.0, 0.0, -0.57, -0.63, -0.61, -0.54, 0.0, 0.0, 1.27, 3.43, 4.8, 4.9, 4.9, 5.09, 5.33, 5.81, 5.78, 5.7, 6.04, 6.3, 5.75, 5.49, 4.94, 3.73, 3.79, 4.09, 4.24, 3.2, 2.8, 2.8, 3.13, 2.68, 2.68, 3.13, 2.68, 3.13, 4.02, 2.84, 3.22, 4.46, 4.84, 3.22, 2.6, 2.21, 1.74, 0.6, 1.34, 3.72, 5.93, 8.32, 5.38, -1.49, -4.43, -5.38, -7.59, -8.55, -8.23, -5.86, -1.54, 1.36, 2.23, 0.59, 0.65, 1.24, 1.24, 1.24, 1.16, 1.41, 0.59, 0.0, 0.0, -0.61, -1.2, -1.2, -0.53, -0.53, 2.6, 2.6, 3.07, 2.63, 2.6, 2.6, 2.0, 1.86, 1.58, 1.24, 1.2, 1.2, 1.49, 1.58, 1.86, 1.58, 0.8, 0.0, 0.0, 0.0, 0.0, 0.0, 0.0, 0.0, -0.57, -0.55, -0.61, -0.59, -0.59, 0.0, 1.11, 3.43, 4.6, 4.52, 4.27, 4.6, 5.34, 5.81, 6.23, 6.16, 6.16, 5.99, 6.0, 5.86, 5.29, 4.65, 4.65, 4.8, 4.77, 3.82, 3.58, 3.13, 2.68, 2.68, 3.13, 3.82, 5.09, 4.92, 3.13, 2.6, 3.49, 4.84, 4.8, 3.6, 2.6, 2.97, 2.54, 1.2, 1.34, 2.17, 5.81, 10.16, 4.6, -3.39, -4.09, -2.8, -5.69, -8.14, -8.93, -8.66, -5.37, -1.49, 0.0, 1.44, 0.69, 0.66, 0.0, 0.0, 0.0, 1.27, 2.11, 1.3, 0.59, -0.53, -1.86, -1.86, -1.24, -1.24, 2.91, 2.91, 2.91, 2.91, 2.91, 2.4, 2.4, 1.9, 1.9, 1.2, 1.2, 1.2, 1.2, 1.9, 1.9, 1.49, 1.24, 0.71, 0.0, 0.0, 0.0, 0.0, 0.0, 0.0, 0.0, -0.63, -0.61, -0.54, -0.59, 0.0, 1.23, 3.16, 3.88, 3.35, 3.6, 4.6, 5.33, 5.81, 5.78, 5.7, 5.7, 5.57, 5.6, 5.49, 5.35, 5.29, 5.75, 5.2, 4.8, 4.77, 4.02, 3.13, 3.13, 3.13, 3.58, 4.4, 4.19, 5.59, 4.47, 3.13, 2.86, 2.53, 3.58, 3.47, 3.47, 3.04, 3.13, 3.58, 1.79, 1.86, 0.54, 4.34, 7.06, 2.35, -1.58, -4.47, -5.81, -7.74, -9.33, -9.62, -8.48, -5.36, -2.72, -1.4, -0.74, -0.7, -1.13, -0.65, 0.65, 2.51, 3.79, 3.47, 3.0, 0.0, -0.95, -1.2, -0.6, -0.6, 2.68, 2.68, 3.07, 3.07, 3.32, 3.32, 2.5, 2.5, 1.9, 1.61, 1.4, 1.4, 1.2, 1.2, 1.2, 1.2, 1.2, 0.65, 0.65, 0.0, 0.0, 0.0, 0.0, 0.0, 0.0, -0.63, -0.55, -1.19, -1.07, -0.54, 0.55, 2.86, 3.43, 3.35, 3.6, 4.34, 5.36, 5.34, 5.24, 5.24, 5.24, 5.24, 4.9, 5.21, 5.01, 5.01, 4.71, 4.55, 4.6, 4.3, 3.53, 4.02, 4.02, 4.47, 4.92, 5.2, 4.65, 4.22, 5.81, 6.26, 4.34, 1.74, 1.24, 2.98, 3.47, 3.04, 3.58, 2.68, 2.6, -0.0, -1.79, 0.0, 6.81, 9.54, 4.8, -1.0, -3.97, -3.82, -6.88, -8.01, -9.28, -8.06, -6.0, -4.71, -3.11, -2.51, -1.2, 0.57, 1.9, 4.11, 8.55, 6.95, 6.23, 3.79, 1.16, 1.2, 1.2, 1.2, 3.07, 3.07, 3.07, 3.6, 3.6, 3.2, 3.07, 2.5, 2.21, 1.88, 1.61, 1.61, 1.61, 1.88, 1.88, 1.2, 1.2, 0.65, 0.53, 0.53, 0.0, 0.0, 0.0, 0.0, 0.0, -0.55, -0.55, -1.08, -1.19, -0.54, 0.55, 2.22, 3.43, 3.72, 4.11, 4.34, 4.92, 5.33, 5.24, 5.09, 5.24, 4.8, 4.6, 4.55, 4.94, 5.01, 5.29, 5.08, 4.8, 4.34, 4.3, 4.3, 6.14, 7.06, 6.61, 5.7, 4.8, 5.2, 5.4, 5.81, 4.92, 2.8, 1.98, 1.9, 2.6, 3.04, 3.58, 2.68, 2.23, -0.0, -1.34, 0.0, 4.5, 10.35, 13.78, 8.2, -1.2, -4.92, -4.02, -4.92, -8.94, -8.71, -7.33, -5.36, -3.43, -1.88, 0.57, 2.68, 3.32, 5.67, 8.4, 9.21, 7.51, 6.44, 4.87, 3.9, 3.38, 3.38, 2.79, 2.79, 3.35, 3.35, 3.6, 3.6, 3.35, 3.14, 2.53, 2.53, 1.84, 1.84, 1.84, 1.84, 1.61, 1.61, 1.16, 1.16, 0.61, 0.61, 0.61, 0.0, 0.0, 0.0, 0.0, 0.0, -0.55, -1.08, -1.08, 0.0, 1.08, 2.48, 3.14, 3.82, 3.98, 4.3, 3.87, 4.44, 5.36, 6.14, 5.99, 5.57, 5.09, 4.8, 5.01, 5.29, 5.29, 5.21, 4.9, 5.02, 5.09, 5.57, 6.51, 7.4, 7.55, 6.21, 5.7, 5.4, 5.09, 4.92, 5.36, 4.92, 4.24, 3.6, 3.6, 2.97, 3.04, 2.12, 1.7, 0.89, -0.89, -0.8, 0.81, 6.05, 11.92, 15.6, 7.63, -2.68, -3.97, -3.58, -4.92, -7.56, -6.58, -4.77, -3.98, -0.95, 3.07, 5.6, 6.79, 6.36, 6.13, 6.65, 7.63, 6.87, 5.39, 5.04, 4.8, 4.8, 2.79, 2.79, 3.35, 3.72, 3.72, 3.72, 3.72, 3.35, 3.14, 2.51, 2.51, 2.51, 1.8, 1.8, 1.6, 1.84, 1.84, 1.33, 1.16, 0.61, 0.59, 0.59, 0.0, 0.0, 0.0, 0.0, -0.55, -0.55, 0.0, 0.57, 1.76, 2.23, 3.14, 3.82, 3.98, 3.98, 3.87, 4.34, 5.36, 6.26, 6.16, 6.04, 5.57, 5.09, 4.8, 4.65, 5.58, 5.75, 5.6, 5.81, 6.3, 6.79, 7.21, 7.26, 7.4, 6.98, 6.14, 6.14, 5.31, 4.85, 4.92, 5.81, 5.31, 4.38, 3.04, 4.02, 1.79, 0.63, 0.0, 0.89, 0.0, -1.2, -2.12, 0.0, 2.88, 6.28, 9.51, 2.12, -2.63, -2.68, -3.07, -6.61, -6.94, -3.97, -2.68, 0.6, 5.44, 7.89, 7.67, 6.64, 5.09, 5.37, 6.87, 6.87, 6.21, 5.62, 4.96, 4.96, 3.14, 3.14, 3.35, 3.72, 3.88, 3.88, 3.88, 3.72, 3.43, 3.16, 2.51, 2.23, 2.23, 2.23, 2.23, 1.8, 1.8, 1.6, 1.13, 1.13, 0.59, 0.57, 0.57, 0.0, 0.0, 0.0, 0.0, 0.0, 0.0, 1.58, 2.48, 2.48, 3.43, 3.88, 4.3, 3.87, 4.3, 4.8, 5.7, 6.23, 6.26, 6.6, 6.04, 5.75, 5.59, 4.9, 5.47, 6.28, 7.01, 6.79, 7.21, 7.21, 6.79, 6.79, 6.79, 6.47, 6.79, 7.06, 5.59, 2.6, 4.85, 5.31, 5.29, 4.47, 4.02, 3.13, 3.13, 1.2, -0.0, 0.0, 1.26, 0.0, -2.6, -4.92, -4.84, -3.76, 0.0, 3.93, 0.0, -2.12, -2.24, -4.52, -3.43, -2.51, 0.0, 2.84, 6.25, 6.32, 6.39, 6.06, 5.06, 5.37, 5.04, 6.44, 6.14, 5.47, 4.8, 4.8, 3.14, 3.14, 3.72, 3.88, 4.27, 4.0, 4.0, 4.0, 3.43, 3.43, 2.86, 2.86, 2.48, 2.22, 2.22, 2.48, 2.48, 1.8, 1.8, 1.27, 1.11, 0.57, 1.08, 1.19, 0.54, 0.0, 0.0, 0.0, 0.63, 1.76, 2.48, 3.15, 3.48, 4.37, 4.8, 4.6, 5.09, 5.57, 5.99, 6.16, 6.23, 6.26, 6.6, 6.3, 5.88, 6.02, 5.34, 6.51, 6.51, 6.3, 5.81, 5.81, 6.1, 6.23, 6.3, 6.3, 5.81, 5.99, 5.59, 4.66, 4.66, 4.85, 3.95, 3.13, 4.85, 4.24, 5.31, 3.13, 1.2, -0.0, 0.63, 2.4, 0.0, -6.28, -10.01, -8.6, -5.29, -0.79, 1.51, -0.74, -2.5, -3.14, 0.0, 1.76, 3.75, 4.87, 5.31, 5.21, 5.21, 4.94, 5.0, 4.83, 5.04, 5.51, 5.1, 4.84, 4.73, 4.73, 3.14, 3.14, 3.72, 4.0, 4.0, 4.0, 4.0, 4.0, 4.0, 3.78, 3.48, 3.15, 2.86, 2.86, 2.86, 2.44, 2.22, 2.22, 1.76, 1.76, 1.11, 1.23, 1.08, 1.19, 0.54, 0.54, 0.0, 0.61, 1.23, 2.48, 2.86, 3.79, 4.11, 4.65, 4.84, 5.08, 5.31, 5.57, 5.99, 6.04, 6.16, 6.23, 6.26, 6.47, 6.3, 6.7, 6.7, 6.1, 5.6, 5.31, 5.31, 5.81, 5.6, 5.6, 5.6, 5.81, 6.3, 5.81, 5.57, 5.59, 4.57, 3.9, 3.13, 3.13, 2.54, 2.5, 3.45, 6.26, 5.2, 0.45, 0.0, 0.85, 2.31, -0.8, -7.02, -9.3, -6.79, -3.85, -1.51, 0.0, -2.01, -1.16, 1.88, 4.0, 4.72, 5.14, 5.36, 4.31, 4.0, 4.46, 4.07, 3.38, 3.26, 3.44, 4.15, 4.15, 3.39, 3.39, 3.14, 3.14, 3.43, 4.0, 4.0, 4.0, 4.0, 4.0, 4.0, 3.48, 3.48, 3.48, 2.86, 2.86, 2.86, 2.86, 2.86, 2.44, 2.22, 2.44, 1.73, 1.73, 1.73, 1.19, 1.16, 0.59, 0.54, 0.61, 1.55, 2.48, 3.48, 4.07, 4.65, 4.65, 4.84, 5.6, 5.81, 5.31, 5.4, 5.57, 6.16, 6.23, 6.26, 6.23, 6.47, 6.3, 6.3, 6.3, 5.6, 5.31, 5.81, 6.23, 6.1, 6.51, 6.28, 6.0, 5.81, 5.81, 5.99, 5.51, 4.15, 2.97, 1.34, 1.79, 1.7, 1.9, 1.88, 1.86, 4.4, 2.48, 0.0, -1.79, 0.0, 2.16, -0.79, -5.94, -5.43, -2.47, -2.39, -1.4, -0.71, 0.0, 1.84, 3.52, 3.5, 3.68, 3.53, 4.1, 3.02, 3.47, 2.51, 1.9, 1.33, 2.12, 3.46, 2.82, 2.7, 2.7, 3.35, 3.35, 3.43, 4.0, 4.0, 4.37, 4.37, 4.37, 4.0, 3.73, 3.48, 3.48, 2.86, 2.86, 3.12, 3.12, 3.12, 2.84, 2.84, 2.2, 2.2, 1.73, 1.73, 1.73, 1.16, 1.16, 0.59, 0.54, 1.73, 2.76, 3.48, 4.41, 4.65, 4.84, 5.08, 5.47, 5.47, 5.31, 5.31, 5.57, 6.16, 6.16, 6.23, 5.81, 5.78, 6.16, 6.51, 6.36, 6.3, 6.3, 6.3, 6.72, 6.79, 7.21, 6.6, 6.6, 6.51, 6.3, 6.04, 5.57, 4.77, 2.54, 3.39, 3.04, 3.47, 3.74, 2.23, 1.26, 2.68, 2.48, 1.49, -1.6, -2.41, 0.0, 0.78, -1.54, -1.49, -0.65, -0.69, -0.68, 0.0, 0.67, 1.23, 2.12, 2.46, 2.34, 2.32, 2.34, 2.28, 1.8, 1.9, 1.26, 0.71, 0.59, 1.32, 2.28, 2.17, 2.17, 3.09, 3.09, 3.43, 4.0, 4.37, 4.55, 4.55, 4.37, 4.07, 4.07, 3.79, 3.49, 3.2, 3.12, 3.12, 2.84, 2.84, 2.84, 2.84, 2.4, 2.4, 1.88, 1.88, 1.7, 1.7, 1.16, 1.16, 1.16, 1.19, 2.2, 3.49, 4.11, 4.65, 5.08, 5.08, 5.08, 5.08, 5.08, 5.31, 5.99, 6.04, 6.6, 6.68, 6.26, 5.81, 6.23, 6.68, 7.06, 6.94, 6.94, 6.79, 6.6, 7.21, 7.21, 7.21, 6.6, 6.79, 6.79, 6.47, 6.6, 5.2, 3.35, 3.82, 4.24, 3.95, 3.95, 3.95, 3.47, 3.58, 3.72, 4.19, 1.41, -1.19, -2.35, 0.0, 1.51, 0.0, 0.0, -0.67, -0.7, 0.0, 0.0, 0.64, 1.3, 1.98, 1.73, 1.74, 1.76, 1.98, 1.84, 1.9, 1.26, 0.0, 0.0, 0.0, 1.32, 1.32, 1.32, 3.43, 3.43, 3.64, 4.0, 4.37, 4.55, 4.55, 4.07, 4.07, 4.07, 3.79, 3.49, 3.49, 3.12, 2.84, 2.84, 2.84, 2.84, 2.84, 2.84, 2.4, 2.4, 2.18, 2.18, 1.7, 1.7, 1.16, 1.16, 1.16, 2.4, 3.22, 4.11, 4.65, 4.65, 5.08, 5.08, 5.08, 5.08, 5.6, 5.88, 6.47, 6.61, 6.68, 6.23, 5.81, 5.81, 6.71, 7.13, 7.13, 7.06, 7.21, 7.01, 7.01, 7.21, 7.26, 7.21, 7.21, 6.79, 6.94, 7.06, 5.09, 4.4, 3.72, 4.09, 4.24, 4.24, 3.47, 3.9, 4.02, 4.38, 4.46, 3.45, 1.25, -0.74, -0.79, 1.48, 3.16, 1.54, 0.0, -0.8, -1.36, -0.69, 0.0, 1.2, 2.53, 3.0, 2.44, 2.07, 2.23, 2.53, 2.15, 1.4, 0.76, 0.0, 0.0, 0.0, 0.71, 0.71, 3.43, 3.43, 4.0, 4.0, 4.55, 4.55, 4.29, 4.07, 4.07, 4.07, 3.49, 3.49, 3.49, 2.84, 2.84, 2.84, 2.84, 2.84, 2.84, 2.84, 2.18, 2.18, 2.18, 2.18, 2.18, 1.7, 1.84, 1.14, 1.16, 2.18, 2.84, 3.83, 4.37, 4.65, 4.84, 5.08, 5.08, 5.47, 6.0, 6.3, 6.51, 7.06, 6.61, 6.23, 5.79, 6.26, 6.71, 7.15, 7.15, 7.13, 7.4, 7.01, 7.01, 7.21, 7.4, 7.37, 6.79, 6.79, 6.94, 7.4, 6.3, 4.27, 3.48, 3.2, 1.6, 3.39, 1.86, 3.2, 3.74, 4.02, 4.77, 4.43, 4.6, 1.56, -0.76, 0.0, 2.97, 4.71, 3.22, 0.71, -0.69, -0.71, 0.0, 1.79, 3.07, 2.91, 2.5, 2.86, 2.53, 2.51, 1.8, 1.27, 0.73, 0.0, 0.0, 0.0, 0.0, 0.0, 3.43, 3.43, 4.0, 4.0, 4.55, 4.55, 4.29, 4.07, 4.07, 3.79, 3.49, 3.49, 3.49, 2.84, 2.84, 2.84, 2.84, 2.84, 2.84, 2.84, 2.18, 2.18, 2.18, 2.36, 2.36, 2.36, 1.84, 1.67, 1.67, 1.84, 2.82, 3.49, 4.11, 4.37, 4.65, 5.21, 5.21, 5.75, 5.89, 6.51, 6.79, 6.94, 7.06, 6.21, 6.16, 6.26, 7.15, 7.15, 7.15, 7.13, 7.51, 7.26, 7.01, 7.21, 6.94, 6.94, 6.94, 6.94, 7.4, 7.4, 6.79, 5.31, 3.48, 2.0, 1.7, 3.39, 2.12, 3.6, 4.15, 3.95, 4.47, 5.2, 5.72, 5.36, 0.69, -3.58, -1.33, 0.0, 1.57, 2.08, 1.4, 0.45, 0.99, 2.6, 3.13, 3.07, 3.14, 2.51, 2.51, 2.0, 1.23, 0.63, 0.0, 0.0, 0.0, -0.67, -0.71, 0.0, 3.43, 3.43, 4.0, 4.37, 4.55, 4.29, 4.65, 4.41, 3.79, 3.79, 3.49, 3.49, 3.49, 2.84, 2.84, 2.84, 2.84, 2.84, 2.84, 2.84, 2.36, 2.36, 2.36, 2.36, 2.36, 2.36, 2.36, 1.67, 1.67, 1.84, 2.36, 3.22, 3.83, 4.37, 4.71, 4.94, 4.94, 5.49, 6.28, 6.6, 7.21, 7.4, 7.07, 6.98, 6.16, 6.68, 7.15, 7.15, 7.15, 7.15, 7.07, 7.26, 7.01, 6.79, 6.94, 6.94, 6.94, 6.94, 7.4, 7.4, 7.26, 5.81, 4.8, 1.49, 1.7, 4.24, 4.4, 4.15, 4.15, 3.74, 4.85, 5.81, 6.01, 7.01, 6.1, -3.84, -9.72, -7.18, -2.85, 0.0, 2.12, 1.26, 1.6, 2.63, 3.58, 4.09, 3.38, 2.11, 1.23, 1.3, 0.72, 0.0, 0.0, -0.76, -1.58, -1.44, -2.12, -0.71, 3.43, 3.43, 4.0, 4.37, 4.55, 4.29, 4.65, 4.41, 4.11, 3.79, 3.49, 3.49, 3.49, 2.84, 2.84, 2.84, 2.84, 2.84, 2.84, 2.84, 2.36, 2.36, 2.36, 2.36, 2.36, 2.36, 2.36, 1.84, 1.67, 1.84, 2.36, 2.82, 3.49, 3.83, 4.71, 4.71, 5.29, 5.49, 6.28, 7.01, 7.26, 7.26, 7.4, 7.07, 7.89, 7.06, 7.15, 7.15, 7.15, 7.15, 7.13, 7.06, 6.79, 6.3, 6.47, 6.47, 6.51, 6.94, 7.4, 7.4, 7.26, 6.3, 4.27, 4.4, 4.24, 4.77, 1.86, 2.23, 2.8, 3.2, 3.32, 4.47, 5.75, 6.97, 10.19, 3.8, -6.55, -11.4, -6.95, -1.95, 0.72, 1.2, 0.89, 2.12, 3.04, 3.43, 2.9, 2.26, 0.74, 0.0, 0.0, -0.76, -1.36, -2.35, -3.06, -3.15, -2.75, -2.12, 3.43, 3.43, 4.0, 4.37, 4.29, 4.29, 4.65, 4.11, 4.11, 4.11, 3.78, 3.49, 3.49, 2.84, 2.84, 2.84, 2.84, 2.84, 2.84, 2.84, 2.36, 2.36, 2.36, 2.36, 2.36, 2.36, 2.18, 2.36, 1.84, 1.84, 2.36, 2.82, 3.22, 3.49, 4.12, 4.43, 5.01, 5.86, 6.28, 7.01, 7.26, 7.26, 7.4, 7.51, 7.07, 7.89, 7.51, 7.58, 7.6, 7.15, 7.15, 7.06, 6.51, 6.47, 6.3, 6.47, 6.94, 6.94, 6.94, 7.4, 7.69, 7.21, 6.36, 4.4, 4.24, 3.82, 2.12, 3.72, 2.4, 3.45, 3.83, 3.07, 4.8, 5.69, 7.68, 12.42, 5.4, -2.53, -6.21, -1.9, 0.61, 2.11, 1.16, 1.26, 1.24, 1.27, 1.45, 0.73, 0.0, -0.71, -1.47, -2.06, -2.9, -3.21, -3.7, -3.91, -3.79, -3.79, 3.16, 3.16, 4.0, 4.37, 4.29, 4.29, 4.65, 4.11, 4.11, 4.11, 4.11, 3.49, 3.22, 2.84, 2.84, 2.84, 2.84, 2.84, 2.84, 2.84, 2.18, 2.36, 2.36, 2.36, 2.36, 2.18, 2.18, 2.18, 2.18, 2.36, 2.36, 2.36, 2.82, 3.76, 4.12, 4.74, 5.01, 5.86, 6.67, 7.01, 7.09, 7.26, 7.26, 7.4, 6.97, 7.06, 7.51, 7.58, 7.6, 7.6, 7.15, 7.13, 6.61, 6.47, 6.3, 6.3, 6.94, 6.94, 6.79, 7.26, 7.69, 7.26, 5.99, 5.2, 4.24, 3.82, 3.82, 3.72, 2.8, 2.86, 3.45, 2.8, 4.47, 4.81, 5.72, 7.95, 11.04, 7.15, 0.0, -1.7, 0.0, 1.36, 2.83, 1.4, 0.0, 0.0, 0.0, -0.71, -1.47, -2.11, -2.97, -2.97, -3.51, -3.6, -3.64, -3.72, -3.72, -3.72, 3.16, 3.16, 4.0, 4.37, 4.29, 4.29, 4.65, 4.11, 4.11, 4.11, 4.11, 3.49, 3.22, 2.84, 3.08, 3.08, 2.84, 2.84, 2.84, 2.4, 2.18, 2.36, 2.36, 2.36, 2.18, 2.18, 2.4, 2.4, 2.18, 1.84, 2.36, 2.36, 3.22, 3.84, 4.12, 4.45, 5.35, 6.41, 6.8, 7.01, 7.09, 7.26, 7.26, 7.4, 7.4, 7.4, 7.51, 7.58, 7.58, 7.58, 7.6, 7.15, 7.13, 7.06, 6.94, 6.79, 6.94, 6.94, 6.79, 7.21, 7.26, 7.84, 6.94, 6.61, 4.34, 3.39, 3.82, 4.8, 2.86, 3.49, 3.22, 2.4, 3.13, 3.48, 3.33, 3.32, 6.4, 10.34, 8.71, 3.21, 0.0, 0.0, 0.69, 1.36, 0.0, -1.94, -2.35, -2.99, -3.06, -3.44, -2.9, -2.82, -3.0, -2.98, -3.07, -3.49, -3.49, -3.49, 2.86, 2.86, 3.73, 4.07, 4.29, 4.65, 4.65, 4.11, 4.11, 4.11, 3.83, 3.49, 3.49, 3.08, 3.08, 3.08, 2.84, 2.84, 2.84, 2.4, 2.4, 2.18, 2.36, 2.36, 2.18, 2.4, 2.4, 2.4, 2.18, 1.84, 2.36, 2.82, 3.47, 3.84, 4.45, 4.74, 5.35, 6.41, 6.8, 6.8, 7.01, 7.26, 7.26, 7.4, 7.4, 7.4, 7.51, 7.58, 7.58, 7.58, 7.58, 7.6, 7.6, 7.58, 7.4, 7.26, 6.94, 6.94, 7.21, 7.09, 7.26, 7.4, 7.51, 6.16, 5.26, 4.02, 3.82, 2.23, 3.16, 3.16, 2.98, 2.86, 2.54, 2.98, 2.4, 2.51, 4.07, 7.01, 11.02, 11.28, 7.71, 2.83, 0.0, 0.0, -1.27, -3.72, -4.29, -3.79, -4.46, -3.55, -4.46, -2.07, -2.15, -2.84, -2.5, -2.86, -2.86, -2.86, 2.86, 2.86, 3.73, 4.07, 4.07, 4.65, 4.11, 4.11, 4.11, 4.11, 3.83, 3.49, 3.49, 3.08, 3.08, 3.08, 2.84, 2.84, 2.84, 2.4, 2.4, 2.18, 2.18, 2.18, 2.18, 2.4, 2.4, 2.4, 1.7, 1.7, 2.36, 2.82, 4.12, 4.12, 4.74, 4.74, 5.01, 6.03, 6.67, 6.8, 7.01, 7.21, 7.21, 7.26, 7.4, 7.4, 7.4, 7.51, 7.13, 7.13, 7.58, 7.58, 7.6, 7.58, 7.97, 7.4, 6.94, 7.37, 7.09, 7.51, 7.51, 7.26, 7.51, 7.06, 5.33, 4.24, 3.82, 2.12, 2.21, 3.07, 1.74, 2.21, 2.54, 2.54, 2.41, 3.22, 3.91, 6.09, 8.72, 11.08, 13.61, 10.35, 2.29, -1.7, -2.23, -3.72, -4.75, -4.74, -4.01, -4.43, -2.48, -1.9, -1.9, -2.4, -2.8, -3.32, -3.32, -3.32, 2.86, 2.86, 3.48, 4.07, 4.41, 4.11, 4.11, 4.11, 4.11, 4.11, 3.49, 3.49, 3.08, 2.82, 3.08, 3.08, 2.84, 2.84, 2.84, 2.4, 2.4, 2.4, 2.18, 2.18, 2.18, 2.4, 2.2, 1.88, 1.7, 1.7, 2.4, 3.49, 4.12, 4.12, 4.12, 4.74, 5.29, 5.86, 6.28, 6.4, 6.6, 6.6, 6.79, 6.79, 6.94, 6.97, 6.97, 7.07, 7.13, 7.13, 7.13, 7.58, 7.6, 7.6, 7.51, 7.07, 7.06, 7.4, 7.51, 7.51, 7.51, 7.26, 7.4, 7.07, 6.23, 4.77, 4.24, 3.82, 3.72, 1.24, 1.2, 1.24, 3.2, 3.13, 4.0, 4.54, 4.95, 6.42, 7.73, 9.1, 11.83, 14.33, 9.31, -0.89, -3.07, -3.32, -4.09, -4.73, -2.86, -0.45, -0.32, -1.2, -1.86, -2.4, -2.91, -3.32, -3.32, -3.32, 2.86, 2.86, 3.79, 3.79, 4.11, 4.11, 4.11, 4.11, 4.11, 3.83, 3.49, 3.49, 2.82, 2.82, 3.08, 2.84, 2.84, 2.84, 2.84, 2.4, 2.4, 2.4, 2.18, 2.18, 2.4, 1.88, 1.73, 1.73, 1.73, 2.4, 2.84, 3.49, 4.12, 4.12, 4.12, 4.43, 5.29, 5.86, 6.28, 6.28, 6.6, 6.6, 6.79, 6.79, 6.94, 6.94, 6.94, 7.06, 7.06, 7.13, 7.13, 7.13, 7.58, 7.6, 7.58, 7.13, 7.51, 7.84, 8.17, 8.0, 7.51, 7.26, 7.4, 7.51, 6.6, 6.14, 5.2, 4.47, 3.82, 1.7, 1.86, 1.9, 2.6, 4.02, 4.85, 5.21, 5.43, 6.64, 8.27, 9.56, 10.34, 12.85, 15.3, 5.72, -2.17, -3.58, -3.82, -3.53, -0.89, -0.0, 0.0, 0.0, -1.34, -2.17, -2.63, -2.68, -2.68, -2.68, 2.86, 2.86, 3.49, 4.11, 4.11, 4.11, 4.11, 4.11, 4.11, 3.49, 3.49, 3.08, 2.82, 2.82, 3.08, 2.84, 2.84, 2.84, 2.84, 2.4, 2.4, 2.4, 2.4, 2.18, 1.7, 1.88, 1.73, 1.73, 1.73, 2.2, 2.84, 3.49, 3.49, 3.76, 4.12, 4.43, 5.29, 5.49, 6.13, 6.28, 6.51, 6.6, 6.79, 6.79, 6.94, 6.94, 6.94, 7.06, 7.06, 6.61, 6.68, 7.13, 7.13, 7.6, 7.13, 7.13, 7.58, 7.87, 8.17, 8.0, 7.51, 7.26, 7.26, 7.4, 6.94, 6.02, 5.31, 3.13, 2.68, 2.68, 2.6, 2.4, 2.4, 3.13, 4.92, 5.75, 5.82, 6.44, 8.06, 9.27, 9.8, 11.29, 14.35, 14.22, 1.88, -3.32, -3.51, -2.4, -1.2, 0.0, 0.32, 0.63, 0.0, -1.34, -1.79, -2.12, -2.12, -2.12, 2.2, 2.4, 3.49, 4.11, 4.11, 4.11, 4.11, 4.11, 3.49, 3.49, 3.49, 2.82, 2.82, 2.82, 3.08, 2.84, 2.84, 2.84, 2.84, 2.4, 2.4, 2.4, 2.4, 1.7, 1.7, 1.7, 1.19, 1.73, 2.2, 2.84, 2.84, 3.49, 3.49, 3.49, 3.83, 4.43, 4.94, 5.29, 5.75, 6.28, 6.51, 6.51, 6.79, 6.79, 6.79, 6.94, 6.94, 6.94, 7.06, 7.06, 6.68, 6.68, 7.13, 7.15, 7.15, 7.13, 7.97, 8.3, 8.17, 8.17, 7.69, 7.26, 7.21, 6.79, 6.94, 6.51, 5.59, 4.41, 4.85, 4.47, 3.58, 3.13, 2.6, 2.6, 3.13, 4.41, 5.75, 5.82, 7.03, 8.03, 8.53, 9.48, 10.98, 11.95, 7.93, -2.79, -2.5, -2.4, -1.2, 0.0, 0.89, 0.63, -0.0, -0.6, -1.26, -0.99, -0.99, -0.99, 2.4, 2.4, 2.84, 3.49, 4.11, 4.11, 3.83, 3.49, 3.49, 3.49, 3.08, 2.82, 2.82, 2.82, 2.84, 2.84, 2.84, 2.84, 2.84, 2.4, 2.4, 2.4, 2.4, 1.7, 1.7, 1.7, 1.73, 1.73, 2.2, 2.84, 2.84, 3.08, 3.08, 3.49, 3.83, 4.12, 4.71, 5.29, 5.75, 5.75, 6.1, 6.51, 6.72, 6.79, 6.79, 6.94, 6.94, 6.94, 6.61, 6.61, 6.68, 6.68, 7.13, 6.71, 7.15, 7.58, 7.97, 7.97, 7.87, 7.69, 7.69, 7.26, 6.79, 6.79, 6.79, 6.3, 5.75, 4.66, 5.09, 4.85, 4.92, 5.36, 4.47, 3.13, 3.13, 3.58, 4.66, 5.34, 5.43, 6.08, 7.64, 8.53, 8.56, 8.0, 0.99, -1.61, -1.61, -1.24, -0.57, 0.63, 1.34, 0.45, -0.0, -0.54, -0.54, -0.54, -0.54, -0.54, 1.7, 1.7, 2.84, 3.49, 3.49, 3.49, 3.49, 3.49, 3.49, 3.08, 3.08, 2.82, 2.36, 2.36, 2.84, 2.84, 2.84, 2.84, 2.4, 2.4, 2.4, 2.4, 1.88, 1.7, 1.7, 1.88, 2.4, 2.4, 2.4, 2.84, 3.08, 2.82, 2.82, 3.49, 3.49, 4.12, 4.71, 4.94, 5.49, 5.75, 6.1, 6.1, 6.1, 6.72, 6.72, 6.79, 6.94, 6.51, 6.61, 6.61, 6.61, 6.68, 6.68, 6.71, 7.15, 7.58, 7.51, 7.51, 7.4, 7.4, 7.4, 7.4, 6.79, 6.72, 6.72, 6.3, 6.16, 4.84, 3.16, 3.22, 4.15, 4.92, 5.31, 4.02, 3.13, 3.58, 4.41, 5.86, 5.43, 5.43, 6.7, 7.59, 7.93, 5.45, 0.95, -0.61, -0.0, 0.54, 1.2, 2.0, 2.24, 0.45, -0.6, -0.71, -0.54, -0.65, -0.65, -0.65, 1.7, 1.7, 2.4, 2.84, 3.22, 3.22, 3.22, 2.84, 2.84, 2.84, 2.82, 2.36, 2.36, 2.18, 2.4, 2.84, 2.4, 2.4, 2.4, 2.18, 2.4, 2.4, 1.88, 2.4, 2.4, 2.4, 2.4, 2.4, 3.08, 2.82, 2.82, 2.82, 2.82, 3.22, 3.49, 4.12, 4.43, 4.94, 5.29, 5.75, 6.0, 6.1, 6.1, 6.3, 6.3, 6.3, 6.47, 6.51, 6.51, 6.61, 6.61, 6.68, 6.68, 6.68, 7.15, 7.13, 7.13, 7.13, 7.51, 7.4, 7.4, 6.97, 6.94, 6.3, 6.1, 6.0, 5.6, 4.93, 1.88, 2.15, 3.22, 3.47, 3.13, 3.13, 3.51, 3.97, 5.36, 6.55, 6.94, 6.4, 6.44, 7.64, 9.51, 7.82, 0.0, -0.59, 1.2, 2.49, 2.91, 3.13, 2.91, 0.99, -0.89, -1.2, -1.2, -1.26, -1.26, -1.26, 1.7, 1.7, 2.4, 2.84, 2.84, 2.84, 2.84, 2.84, 2.84, 2.84, 2.4, 2.36, 2.36, 2.18, 2.4, 2.4, 2.4, 2.4, 2.18, 2.18, 2.18, 1.88, 1.88, 2.4, 2.4, 2.4, 2.84, 2.82, 2.82, 2.82, 2.82, 3.04, 2.82, 3.22, 3.49, 4.12, 4.43, 4.71, 4.94, 5.58, 5.75, 6.0, 6.0, 6.1, 6.3, 6.3, 6.3, 6.47, 6.47, 6.47, 6.6, 6.16, 6.68, 6.68, 6.71, 7.15, 7.13, 7.13, 7.06, 7.06, 7.06, 7.06, 7.06, 6.3, 6.1, 6.0, 5.6, 5.08, 2.86, 2.41, 2.53, 2.6, 2.17, 3.04, 3.32, 3.45, 4.87, 5.36, 6.79, 6.94, 7.03, 7.41, 10.23, 12.21, 1.88, -1.33, 1.2, 3.58, 3.53, 3.07, 2.5, 1.9, 0.0, -1.2, -1.79, -1.79, -1.79, -1.79, 1.16, 1.16, 1.88, 2.4, 2.84, 2.84, 2.84, 2.84, 2.84, 2.4, 2.4, 2.18, 2.18, 2.18, 2.4, 2.4, 2.18, 2.18, 2.18, 2.18, 2.18, 2.18, 2.18, 2.4, 2.4, 2.4, 2.36, 2.82, 2.82, 2.36, 2.16, 2.32, 2.82, 3.04, 3.47, 4.12, 4.12, 4.71, 4.94, 5.21, 5.21, 5.6, 5.6, 5.6, 6.0, 6.3, 6.3, 6.3, 6.47, 6.47, 6.47, 6.16, 6.23, 6.23, 6.71, 6.71, 6.71, 6.68, 6.68, 6.61, 6.61, 6.61, 6.61, 6.47, 6.3, 5.6, 5.47, 5.31, 4.27, 2.84, 2.98, 3.04, 2.6, 3.07, 3.32, 3.45, 2.86, 3.51, 3.97, 5.34, 6.4, 6.95, 7.93, 11.71, 8.71, 0.0, 0.99, 3.58, 4.0, 2.79, 1.61, 1.61, 0.57, -1.34, -2.17, -2.68, -2.68, -2.68, 1.14, 1.14, 1.7, 2.2, 2.2, 2.4, 2.4, 2.4, 2.4, 2.4, 2.4, 2.18, 2.18, 2.18, 2.18, 2.36, 2.36, 2.36, 2.36, 2.36, 2.36, 2.36, 2.18, 2.18, 2.18, 2.18, 2.18, 2.36, 2.36, 2.16, 2.16, 2.16, 2.82, 3.04, 3.47, 4.12, 4.12, 4.43, 4.71, 4.94, 5.21, 5.21, 5.6, 5.6, 5.6, 6.0, 6.3, 6.3, 6.3, 6.47, 6.04, 6.16, 6.16, 6.23, 6.26, 6.26, 6.26, 6.26, 6.23, 6.23, 6.23, 6.23, 6.68, 6.6, 6.3, 5.6, 5.47, 5.08, 4.27, 3.22, 3.6, 3.47, 2.6, 3.32, 3.74, 3.45, 2.86, 2.8, 2.68, 2.68, 4.81, 4.83, 4.68, 7.04, 9.8, 5.51, 1.88, 3.32, 4.75, 4.02, 1.33, 0.61, 0.61, -0.99, -2.68, -3.07, -3.07, -3.07, 0.58, 0.58, 1.16, 1.73, 2.2, 2.2, 2.2, 2.2, 2.2, 2.2, 2.2, 2.4, 2.18, 2.18, 2.36, 2.36, 2.36, 2.16, 2.16, 2.16, 2.16, 2.36, 2.36, 2.36, 2.36, 2.36, 2.36, 2.36, 1.84, 1.67, 2.16, 2.16, 2.82, 3.04, 3.47, 3.47, 4.12, 4.12, 4.71, 4.71, 5.21, 5.21, 5.21, 5.47, 5.6, 5.6, 6.0, 6.23, 6.3, 5.88, 5.99, 5.99, 5.7, 5.7, 5.78, 5.81, 5.81, 5.81, 5.81, 5.81, 5.78, 6.23, 6.23, 6.16, 6.04, 5.6, 5.08, 4.55, 4.27, 4.22, 4.15, 3.6, 2.4, 3.2, 2.86, 2.8, 2.4, 1.58, 1.86, 2.24, 3.58, 3.33, 3.95, 4.58, 6.4, 7.11, 5.41, 5.38, 6.32, 6.11, 3.51, 0.63, 0.0, -1.2, -2.68, -3.32, -3.32, -3.32, 0.58, 0.58, 1.16, 1.73, 1.73, 1.73, 1.73, 1.73, 1.73, 1.73, 1.73, 1.88, 1.7, 2.36, 2.36, 2.16, 2.32, 2.32, 2.32, 2.32, 2.32, 2.32, 2.32, 2.16, 2.36, 2.36, 2.36, 1.84, 1.67, 2.16, 2.16, 2.16, 2.8, 2.8, 3.47, 3.47, 3.76, 4.12, 4.12, 4.71, 4.71, 5.21, 5.21, 5.21, 5.37, 5.6, 6.0, 6.0, 5.6, 5.81, 5.81, 5.57, 5.57, 5.24, 5.24, 5.33, 5.36, 5.36, 5.36, 5.36, 5.36, 5.81, 5.78, 5.78, 5.7, 5.31, 4.55, 4.55, 4.27, 3.72, 3.6, 3.6, 2.8, 2.23, 1.9, 1.9, 2.4, 1.86, 2.12, 2.24, 2.0, 3.47, 3.11, 3.83, 6.31, 7.04, 6.87, 6.64, 6.87, 7.19, 6.36, 2.9, 0.0, -1.9, -2.68, -3.32, -3.32, -3.32, 0.0, 0.0, 0.59, 1.19, 1.19, 1.73, 1.73, 1.73, 1.73, 1.73, 1.73, 1.73, 1.7, 1.84, 2.16, 2.32, 2.32, 2.14, 2.29, 2.29, 2.29, 2.32, 2.32, 2.32, 2.16, 2.16, 2.16, 1.67, 2.16, 2.32, 2.32, 2.32, 2.8, 2.8, 2.8, 3.47, 3.47, 4.12, 4.12, 4.12, 4.71, 4.71, 4.94, 5.21, 5.21, 5.75, 5.75, 6.0, 5.6, 5.6, 5.6, 5.31, 5.09, 5.09, 5.24, 4.8, 4.88, 4.92, 4.92, 4.92, 5.36, 5.36, 5.36, 5.78, 5.78, 5.09, 4.8, 4.27, 3.88, 4.11, 3.6, 3.74, 3.47, 3.35, 1.9, 1.9, 2.23, 2.17, 2.17, 2.24, 2.6, 3.11, 3.21, 3.87, 6.21, 8.0, 7.79, 7.59, 7.51, 7.85, 7.69, 5.77, 0.0, -2.63, -3.13, -3.07, -3.07, -3.07, 0.0, 0.0, 0.0, 0.54, 1.19, 1.19, 1.19, 1.19, 1.73, 1.73, 1.73, 1.73, 1.7, 1.84, 1.8, 1.8, 2.29, 2.29, 2.29, 2.29, 2.29, 2.29, 2.29, 2.32, 2.32, 2.32, 2.32, 2.32, 2.32, 2.32, 2.32, 2.32, 2.49, 2.8, 2.8, 2.8, 3.47, 3.47, 4.12, 4.12, 4.12, 4.43, 4.71, 4.94, 5.29, 5.29, 5.58, 5.75, 5.37, 5.47, 5.08, 5.31, 4.9, 5.02, 4.6, 4.77, 4.34, 4.44, 4.92, 4.92, 4.92, 4.92, 5.36, 5.36, 5.33, 5.24, 4.77, 4.11, 4.11, 3.7, 3.7, 3.7, 3.82, 4.24, 2.4, 2.15, 2.4, 2.6, 2.6, 2.68, 2.17, 3.07, 3.27, 4.01, 6.17, 8.74, 9.49, 8.76, 8.46, 8.56, 8.61, 7.93, 1.8, -2.24, -2.68, -2.68, -2.68, -2.68, 0.0, 0.0, 0.0, 0.54, 1.19, 1.19, 1.19, 1.19, 1.73, 1.73, 1.73, 1.73, 1.7, 1.84, 1.8, 1.8, 2.29, 2.29, 2.29, 2.29, 2.29, 2.29, 2.29, 2.32, 2.32, 2.32, 2.32, 2.32, 2.32, 2.32, 2.32, 2.32, 2.49, 2.8, 2.8, 2.8, 3.47, 3.47, 4.12, 4.12, 4.12, 4.43, 4.71, 4.94, 5.29, 5.29, 5.58, 5.75, 5.37, 5.47, 5.08, 5.31, 4.9, 5.02, 4.6, 4.77, 4.34, 4.44, 4.92, 4.92, 4.92, 4.92, 5.36, 5.36, 5.33, 5.24, 4.77, 4.11, 4.11, 3.7, 3.7, 3.7, 3.82, 4.24, 2.4, 2.15, 2.0, 2.6, 2.6, 2.68, 2.17, 3.22, 3.33, 3.88, 6.21, 8.36, 9.49, 10.12, 9.1, 9.02, 8.72, 8.5, 6.05, 0.0, -1.86, -2.6, -2.6, -2.6]}]